Wetterdaten: Samstag, 14.02.2026
Datum Zeit Temp. Aussen Temp. o. S. Temp +5cm Feuchte Auss Luftdruck Regen Sonnenschein Regendauer Solar Windböen Empfang
14.02.2026 00:00 1,9 °C 1,7 °C -1,7 °C 91 % 999,3 hPa 0,0 l/m² 0 min 0 min 0 W/m² 19,3 km/h (3 Bft) 95,74 %
14.02.2026 00:02 1,9 °C 1,7 °C -1,7 °C 91 % 999,3 hPa 0,0 l/m² 0 min 0 min 0 W/m² 6,4 km/h (2 Bft) 94,87 %
14.02.2026 00:04 1,9 °C 1,7 °C -1,7 °C 91 % 999,3 hPa 0,0 l/m² 0 min 0 min 0 W/m² 6,4 km/h (2 Bft) 95,74 %
14.02.2026 00:07 1,9 °C 1,7 °C -1,7 °C 91 % 999,5 hPa 0,0 l/m² 0 min 0 min 0 W/m² 19,3 km/h (3 Bft) 95,89 %
14.02.2026 00:08 1,9 °C 1,7 °C -1,7 °C 91 % 999,4 hPa 0,0 l/m² 0 min 0 min 0 W/m² 16,1 km/h (3 Bft) 91,30 %
14.02.2026 00:10 1,9 °C 1,7 °C -1,7 °C 91 % 999,5 hPa 0,0 l/m² 0 min 0 min 0 W/m² 16,1 km/h (3 Bft) 95,74 %
14.02.2026 00:12 1,9 °C 1,7 °C -1,7 °C 91 % 999,5 hPa 0,0 l/m² 0 min 0 min 0 W/m² 12,9 km/h (3 Bft) 95,74 %
14.02.2026 00:14 1,9 °C 1,7 °C -1,7 °C 91 % 999,6 hPa 0,0 l/m² 0 min 0 min 0 W/m² 12,9 km/h (3 Bft) 93,62 %
14.02.2026 00:16 1,9 °C 1,7 °C -1,7 °C 91 % 999,6 hPa 0,0 l/m² 0 min 0 min 0 W/m² 6,4 km/h (2 Bft) 95,74 %
14.02.2026 00:18 1,9 °C 1,7 °C -1,7 °C 91 % 999,6 hPa 0,0 l/m² 0 min 0 min 0 W/m² 9,7 km/h (2 Bft) 94,29 %
14.02.2026 00:20 1,9 °C 1,7 °C -1,7 °C 91 % 999,6 hPa 0,0 l/m² 0 min 0 min 0 W/m² 6,4 km/h (2 Bft) 95,74 %
14.02.2026 00:22 1,9 °C 1,7 °C -1,7 °C 91 % 999,6 hPa 0,0 l/m² 0 min 0 min 0 W/m² 9,7 km/h (2 Bft) 95,74 %
14.02.2026 00:24 1,9 °C 1,7 °C -1,7 °C 91 % 999,7 hPa 0,0 l/m² 0 min 0 min 0 W/m² 12,9 km/h (3 Bft) 95,74 %
14.02.2026 00:26 1,9 °C 1,7 °C -1,7 °C 91 % 999,8 hPa 0,0 l/m² 0 min 0 min 0 W/m² 12,9 km/h (3 Bft) 98,31 %
14.02.2026 00:28 1,9 °C 1,7 °C -1,7 °C 91 % 999,8 hPa 0,0 l/m² 0 min 0 min 0 W/m² 9,7 km/h (2 Bft) 97,14 %
14.02.2026 00:30 1,9 °C 1,7 °C -1,7 °C 91 % 999,8 hPa 0,0 l/m² 0 min 0 min 0 W/m² 9,7 km/h (2 Bft) 95,74 %
14.02.2026 00:32 1,9 °C 1,7 °C -1,7 °C 91 % 999,9 hPa 0,0 l/m² 0 min 0 min 0 W/m² 9,7 km/h (2 Bft) 100,00 %
14.02.2026 00:34 1,9 °C 1,1 °C -1,7 °C 91 % 999,9 hPa 0,0 l/m² 0 min 0 min 0 W/m² 9,7 km/h (2 Bft) 100,00 %
14.02.2026 00:36 1,9 °C 1,7 °C -1,7 °C 91 % 999,9 hPa 0,0 l/m² 0 min 0 min 0 W/m² 12,9 km/h (3 Bft) 100,00 %
14.02.2026 00:38 1,9 °C 1,1 °C -1,7 °C 91 % 999,9 hPa 0,0 l/m² 0 min 0 min 0 W/m² 9,7 km/h (2 Bft) 100,00 %
14.02.2026 00:40 1,9 °C 1,7 °C -1,7 °C 91 % 999,9 hPa 0,0 l/m² 0 min 0 min 0 W/m² 9,7 km/h (2 Bft) 100,00 %
14.02.2026 00:42 1,9 °C 1,7 °C -1,7 °C 91 % 999,9 hPa 0,0 l/m² 0 min 0 min 0 W/m² 6,4 km/h (2 Bft) 100,00 %
14.02.2026 00:44 1,9 °C 1,1 °C -1,7 °C 91 % 1000,0 hPa 0,0 l/m² 0 min 0 min 0 W/m² 12,9 km/h (3 Bft) 100,00 %
14.02.2026 00:46 1,9 °C 1,1 °C -1,7 °C 91 % 1000,0 hPa 0,0 l/m² 0 min 0 min 0 W/m² 19,3 km/h (3 Bft) 100,00 %
14.02.2026 00:48 1,8 °C 1,1 °C -1,7 °C 91 % 1000,0 hPa 0,0 l/m² 0 min 0 min 0 W/m² 6,4 km/h (2 Bft) 100,00 %
14.02.2026 00:50 1,9 °C 1,1 °C -1,7 °C 91 % 1000,1 hPa 0,0 l/m² 0 min 0 min 0 W/m² 6,4 km/h (2 Bft) 100,00 %
14.02.2026 00:52 1,8 °C 1,1 °C -1,7 °C 91 % 1000,1 hPa 0,0 l/m² 0 min 0 min 0 W/m² 16,1 km/h (3 Bft) 100,00 %
14.02.2026 00:54 1,8 °C 1,1 °C -2,2 °C 91 % 1000,1 hPa 0,0 l/m² 0 min 0 min 0 W/m² 12,9 km/h (3 Bft) 100,00 %
14.02.2026 00:56 1,8 °C 1,1 °C -1,7 °C 91 % 1000,1 hPa 0,0 l/m² 0 min 0 min 0 W/m² 9,7 km/h (2 Bft) 100,00 %
14.02.2026 00:58 1,8 °C 1,1 °C -2,2 °C 91 % 1000,1 hPa 0,0 l/m² 0 min 0 min 0 W/m² 12,9 km/h (3 Bft) 100,00 %
14.02.2026 01:00 1,8 °C 1,1 °C -2,2 °C 91 % 1000,1 hPa 0,0 l/m² 0 min 0 min 0 W/m² 16,1 km/h (3 Bft) 100,00 %
14.02.2026 01:02 1,7 °C 1,1 °C -2,2 °C 91 % 1000,1 hPa 0,0 l/m² 0 min 0 min 0 W/m² 22,5 km/h (4 Bft) 100,00 %
14.02.2026 01:04 1,7 °C 1,1 °C -2,2 °C 91 % 1000,2 hPa 0,0 l/m² 0 min 0 min 0 W/m² 25,7 km/h (4 Bft) 100,00 %
14.02.2026 01:06 1,7 °C 1,1 °C -2,2 °C 90 % 1000,1 hPa 0,0 l/m² 0 min 0 min 0 W/m² 19,3 km/h (3 Bft) 100,00 %
14.02.2026 01:08 1,7 °C 1,1 °C -2,2 °C 90 % 1000,2 hPa 0,0 l/m² 0 min 0 min 0 W/m² 19,3 km/h (3 Bft) 100,00 %
14.02.2026 01:10 1,7 °C 1,1 °C -2,2 °C 90 % 1000,2 hPa 0,0 l/m² 0 min 0 min 0 W/m² 16,1 km/h (3 Bft) 100,00 %
14.02.2026 01:12 1,7 °C 1,1 °C -2,2 °C 90 % 1000,2 hPa 0,0 l/m² 0 min 0 min 0 W/m² 12,9 km/h (3 Bft) 100,00 %
14.02.2026 01:14 1,7 °C 1,1 °C -2,2 °C 90 % 1000,2 hPa 0,0 l/m² 0 min 0 min 0 W/m² 9,7 km/h (2 Bft) 97,87 %
14.02.2026 01:16 1,7 °C 1,1 °C -2,2 °C 90 % 1000,2 hPa 0,0 l/m² 0 min 0 min 0 W/m² 9,7 km/h (2 Bft) 100,00 %
14.02.2026 01:18 1,7 °C 1,1 °C -2,2 °C 91 % 1000,3 hPa 0,0 l/m² 0 min 0 min 0 W/m² 6,4 km/h (2 Bft) 97,87 %
14.02.2026 01:20 1,7 °C 1,1 °C -2,2 °C 91 % 1000,3 hPa 0,0 l/m² 0 min 0 min 0 W/m² 6,4 km/h (2 Bft) 95,65 %
14.02.2026 01:22 1,7 °C 1,1 °C -2,2 °C 91 % 1000,3 hPa 0,0 l/m² 0 min 0 min 0 W/m² 22,5 km/h (4 Bft) 100,00 %
14.02.2026 01:24 1,6 °C 1,1 °C -2,2 °C 91 % 1000,3 hPa 0,0 l/m² 0 min 0 min 0 W/m² 12,9 km/h (3 Bft) 100,00 %
14.02.2026 01:26 1,6 °C 1,1 °C -2,2 °C 91 % 1000,3 hPa 0,0 l/m² 0 min 0 min 0 W/m² 12,9 km/h (3 Bft) 100,00 %
14.02.2026 01:28 1,6 °C 1,1 °C -2,2 °C 91 % 1000,4 hPa 0,0 l/m² 0 min 0 min 0 W/m² 19,3 km/h (3 Bft) 100,00 %
14.02.2026 01:30 1,6 °C 1,1 °C -2,2 °C 91 % 1000,4 hPa 0,0 l/m² 0 min 0 min 0 W/m² 12,9 km/h (3 Bft) 100,00 %
14.02.2026 01:32 1,6 °C 1,1 °C -2,2 °C 91 % 1000,5 hPa 0,0 l/m² 0 min 0 min 0 W/m² 9,7 km/h (2 Bft) 97,87 %
14.02.2026 01:34 1,6 °C 1,1 °C -2,2 °C 91 % 1000,4 hPa 0,0 l/m² 0 min 0 min 0 W/m² 12,9 km/h (3 Bft) 97,87 %
14.02.2026 01:36 1,6 °C 1,1 °C -2,2 °C 91 % 1000,5 hPa 0,0 l/m² 0 min 0 min 0 W/m² 9,7 km/h (2 Bft) 100,00 %
14.02.2026 01:38 1,6 °C 1,1 °C -2,2 °C 91 % 1000,4 hPa 0,0 l/m² 0 min 0 min 0 W/m² 16,1 km/h (3 Bft) 100,00 %
14.02.2026 01:40 1,6 °C 1,1 °C -2,2 °C 91 % 1000,4 hPa 0,0 l/m² 0 min 0 min 0 W/m² 12,9 km/h (3 Bft) 97,87 %
14.02.2026 01:42 1,6 °C 1,1 °C -2,2 °C 91 % 1000,5 hPa 0,0 l/m² 0 min 0 min 0 W/m² 9,7 km/h (2 Bft) 100,00 %
14.02.2026 01:44 1,6 °C 1,1 °C -2,2 °C 91 % 1000,5 hPa 0,0 l/m² 0 min 0 min 0 W/m² 22,5 km/h (4 Bft) 97,87 %
14.02.2026 01:46 1,6 °C 1,1 °C -2,2 °C 91 % 1000,5 hPa 0,0 l/m² 0 min 0 min 0 W/m² 6,4 km/h (2 Bft) 97,87 %
14.02.2026 01:48 1,6 °C 1,1 °C -2,2 °C 91 % 1000,5 hPa 0,0 l/m² 0 min 0 min 0 W/m² 12,9 km/h (3 Bft) 97,87 %
14.02.2026 01:50 1,6 °C 1,1 °C -2,2 °C 91 % 1000,5 hPa 0,0 l/m² 0 min 0 min 0 W/m² 12,9 km/h (3 Bft) 95,74 %
14.02.2026 01:52 1,6 °C 1,1 °C -2,2 °C 91 % 1000,5 hPa 0,0 l/m² 0 min 0 min 0 W/m² 9,7 km/h (2 Bft) 91,49 %
14.02.2026 01:54 1,6 °C 1,1 °C -2,2 °C 91 % 1000,7 hPa 0,0 l/m² 0 min 0 min 0 W/m² 12,9 km/h (3 Bft) 100,00 %
14.02.2026 01:56 1,6 °C 1,1 °C -2,2 °C 91 % 1000,7 hPa 0,0 l/m² 0 min 0 min 0 W/m² 6,4 km/h (2 Bft) 95,74 %
14.02.2026 01:58 1,5 °C 1,1 °C -2,2 °C 91 % 1000,7 hPa 0,0 l/m² 0 min 0 min 0 W/m² 12,9 km/h (3 Bft) 93,62 %
14.02.2026 02:00 1,5 °C 1,1 °C -2,2 °C 91 % 1000,7 hPa 0,0 l/m² 0 min 0 min 0 W/m² 16,1 km/h (3 Bft) 93,62 %
14.02.2026 02:02 1,5 °C 1,1 °C -2,2 °C 91 % 1000,8 hPa 0,0 l/m² 0 min 0 min 0 W/m² 6,4 km/h (2 Bft) 93,62 %
14.02.2026 02:04 1,6 °C 1,1 °C -2,2 °C 91 % 1000,8 hPa 0,0 l/m² 0 min 0 min 0 W/m² 9,7 km/h (2 Bft) 95,74 %
14.02.2026 02:06 1,5 °C 1,1 °C -2,2 °C 91 % 1000,9 hPa 0,0 l/m² 0 min 0 min 0 W/m² 9,7 km/h (2 Bft) 93,62 %
14.02.2026 02:08 1,6 °C 1,1 °C -2,2 °C 91 % 1000,9 hPa 0,0 l/m² 0 min 0 min 0 W/m² 6,4 km/h (2 Bft) 93,62 %
14.02.2026 02:10 1,5 °C 1,1 °C -2,2 °C 91 % 1001,0 hPa 0,0 l/m² 0 min 0 min 0 W/m² 9,7 km/h (2 Bft) 93,62 %
14.02.2026 02:14 1,5 °C 1,1 °C -2,2 °C 91 % 1001,0 hPa 0,0 l/m² 0 min 0 min 0 W/m² 22,5 km/h (4 Bft) 100,00 %
14.02.2026 02:16 1,4 °C 1,1 °C -2,2 °C 91 % 1001,0 hPa 0,0 l/m² 0 min 0 min 0 W/m² 25,7 km/h (4 Bft) 89,36 %
14.02.2026 02:18 1,4 °C 1,1 °C -2,2 °C 91 % 1001,0 hPa 0,0 l/m² 0 min 0 min 0 W/m² 16,1 km/h (3 Bft) 95,74 %
14.02.2026 02:20 1,4 °C 1,1 °C -2,2 °C 91 % 1001,1 hPa 0,0 l/m² 0 min 0 min 0 W/m² 35,4 km/h (5 Bft) 95,74 %
14.02.2026 02:22 1,4 °C 1,1 °C -2,2 °C 91 % 1001,1 hPa 0,0 l/m² 0 min 0 min 0 W/m² 12,9 km/h (3 Bft) 95,74 %
14.02.2026 02:24 1,4 °C 1,1 °C -2,2 °C 90 % 1001,1 hPa 0,0 l/m² 0 min 0 min 0 W/m² 19,3 km/h (3 Bft) 93,48 %
14.02.2026 02:26 1,4 °C 1,1 °C -2,2 °C 90 % 1001,2 hPa 0,0 l/m² 0 min 0 min 0 W/m² 9,7 km/h (2 Bft) 95,74 %
14.02.2026 02:28 1,4 °C 1,1 °C -2,2 °C 90 % 1001,1 hPa 0,0 l/m² 0 min 0 min 0 W/m² 9,7 km/h (2 Bft) 95,74 %
14.02.2026 02:30 1,4 °C 1,1 °C -2,2 °C 90 % 1001,2 hPa 0,0 l/m² 0 min 0 min 0 W/m² 9,7 km/h (2 Bft) 95,74 %
14.02.2026 02:32 1,4 °C 1,1 °C -2,2 °C 90 % 1001,2 hPa 0,0 l/m² 0 min 0 min 0 W/m² 12,9 km/h (3 Bft) 91,49 %
14.02.2026 02:34 1,4 °C 1,1 °C -2,2 °C 90 % 1001,2 hPa 0,0 l/m² 0 min 0 min 0 W/m² 12,9 km/h (3 Bft) 93,62 %
14.02.2026 02:36 1,4 °C 1,1 °C -2,2 °C 91 % 1001,2 hPa 0,0 l/m² 0 min 0 min 0 W/m² 19,3 km/h (3 Bft) 93,62 %
14.02.2026 02:38 1,4 °C 1,1 °C -2,2 °C 90 % 1001,2 hPa 0,0 l/m² 0 min 0 min 0 W/m² 9,7 km/h (2 Bft) 95,74 %
14.02.2026 02:40 1,4 °C 1,1 °C -2,2 °C 90 % 1001,2 hPa 0,0 l/m² 0 min 0 min 0 W/m² 9,7 km/h (2 Bft) 94,29 %
14.02.2026 02:42 1,4 °C 1,1 °C -2,2 °C 90 % 1001,3 hPa 0,0 l/m² 0 min 0 min 0 W/m² 9,7 km/h (2 Bft) 96,92 %
14.02.2026 02:44 1,4 °C 1,1 °C -2,2 °C 90 % 1001,3 hPa 0,0 l/m² 0 min 0 min 0 W/m² 16,1 km/h (3 Bft) 97,14 %
14.02.2026 02:46 1,4 °C 1,1 °C -2,2 °C 90 % 1001,3 hPa 0,0 l/m² 0 min 0 min 0 W/m² 12,9 km/h (3 Bft) 95,74 %
14.02.2026 02:48 1,4 °C 1,1 °C -2,2 °C 90 % 1001,3 hPa 0,0 l/m² 0 min 0 min 0 W/m² 12,9 km/h (3 Bft) 95,12 %
14.02.2026 02:50 1,4 °C 1,1 °C -2,2 °C 90 % 1001,3 hPa 0,0 l/m² 0 min 0 min 0 W/m² 12,9 km/h (3 Bft) 97,87 %
14.02.2026 02:52 1,3 °C 1,1 °C -2,2 °C 90 % 1001,3 hPa 0,0 l/m² 0 min 0 min 0 W/m² 9,7 km/h (2 Bft) 100,00 %
14.02.2026 02:54 1,4 °C 1,1 °C -2,2 °C 90 % 1001,4 hPa 0,0 l/m² 0 min 0 min 0 W/m² 12,9 km/h (3 Bft) 100,00 %
14.02.2026 02:56 1,3 °C 1,1 °C -2,2 °C 90 % 1001,4 hPa 0,0 l/m² 0 min 0 min 0 W/m² 19,3 km/h (3 Bft) 96,23 %
14.02.2026 02:58 1,3 °C 1,1 °C -2,2 °C 90 % 1001,4 hPa 0,0 l/m² 0 min 0 min 0 W/m² 16,1 km/h (3 Bft) 100,00 %
14.02.2026 03:00 1,3 °C 1,1 °C -2,2 °C 90 % 1001,4 hPa 0,0 l/m² 0 min 0 min 0 W/m² 22,5 km/h (4 Bft) 97,87 %
14.02.2026 03:02 1,3 °C 0,6 °C -2,2 °C 90 % 1001,4 hPa 0,0 l/m² 0 min 0 min 0 W/m² 12,9 km/h (3 Bft) 97,87 %
14.02.2026 03:04 1,3 °C 1,1 °C -2,2 °C 90 % 1001,4 hPa 0,0 l/m² 0 min 0 min 0 W/m² 12,9 km/h (3 Bft) 100,00 %
14.02.2026 03:06 1,3 °C 1,1 °C -2,2 °C 90 % 1001,4 hPa 0,0 l/m² 0 min 0 min 0 W/m² 16,1 km/h (3 Bft) 100,00 %
14.02.2026 03:08 1,3 °C 1,1 °C -2,2 °C 90 % 1001,5 hPa 0,0 l/m² 0 min 0 min 0 W/m² 16,1 km/h (3 Bft) 100,00 %
14.02.2026 03:10 1,3 °C 1,1 °C -2,2 °C 90 % 1001,5 hPa 0,0 l/m² 0 min 0 min 0 W/m² 16,1 km/h (3 Bft) 100,00 %
14.02.2026 03:12 1,3 °C 0,6 °C -2,2 °C 90 % 1001,6 hPa 0,0 l/m² 0 min 0 min 0 W/m² 16,1 km/h (3 Bft) 85,11 %
14.02.2026 03:14 1,3 °C 0,6 °C -2,2 °C 90 % 1001,7 hPa 0,0 l/m² 0 min 0 min 0 W/m² 16,1 km/h (3 Bft) 95,14 %
14.02.2026 03:16 1,3 °C 1,1 °C -2,2 °C 90 % 1001,6 hPa 0,0 l/m² 0 min 0 min 0 W/m² 16,1 km/h (3 Bft) 100,00 %
14.02.2026 03:18 1,3 °C 0,6 °C -2,8 °C 90 % 1001,7 hPa 0,0 l/m² 0 min 0 min 0 W/m² 19,3 km/h (3 Bft) 97,87 %
14.02.2026 03:20 1,3 °C 0,6 °C -2,8 °C 90 % 1001,7 hPa 0,0 l/m² 0 min 0 min 0 W/m² 16,1 km/h (3 Bft) 100,00 %
14.02.2026 03:22 1,3 °C 0,6 °C -2,2 °C 90 % 1001,6 hPa 0,0 l/m² 0 min 0 min 0 W/m² 9,7 km/h (2 Bft) 100,00 %
14.02.2026 03:24 1,3 °C 0,6 °C -2,2 °C 90 % 1001,7 hPa 0,0 l/m² 0 min 0 min 0 W/m² 6,4 km/h (2 Bft) 100,00 %
14.02.2026 03:26 1,3 °C 1,1 °C -2,2 °C 90 % 1001,7 hPa 0,0 l/m² 0 min 0 min 0 W/m² 16,1 km/h (3 Bft) 100,00 %
14.02.2026 03:28 1,3 °C 1,1 °C -2,2 °C 90 % 1001,8 hPa 0,0 l/m² 0 min 0 min 0 W/m² 12,9 km/h (3 Bft) 97,87 %
14.02.2026 03:30 1,3 °C 1,1 °C -2,2 °C 90 % 1001,8 hPa 0,0 l/m² 0 min 0 min 0 W/m² 16,1 km/h (3 Bft) 97,87 %
14.02.2026 03:32 1,3 °C 0,6 °C -2,2 °C 90 % 1001,8 hPa 0,0 l/m² 0 min 0 min 0 W/m² 19,3 km/h (3 Bft) 95,74 %
14.02.2026 03:34 1,3 °C 1,1 °C -2,2 °C 90 % 1001,9 hPa 0,0 l/m² 0 min 0 min 0 W/m² 9,7 km/h (2 Bft) 95,65 %
14.02.2026 03:36 1,3 °C 1,1 °C -2,2 °C 90 % 1001,9 hPa 0,0 l/m² 0 min 0 min 0 W/m² 3,2 km/h (1 Bft) 96,23 %
14.02.2026 03:38 1,3 °C 1,1 °C -2,2 °C 90 % 1002,0 hPa 0,0 l/m² 0 min 0 min 0 W/m² 16,1 km/h (3 Bft) 97,87 %
14.02.2026 03:40 1,3 °C 1,1 °C -2,2 °C 90 % 1002,0 hPa 0,0 l/m² 0 min 0 min 0 W/m² 9,7 km/h (2 Bft) 97,87 %
14.02.2026 03:42 1,3 °C 1,1 °C -2,2 °C 90 % 1002,0 hPa 0,0 l/m² 0 min 0 min 0 W/m² 12,9 km/h (3 Bft) 97,87 %
14.02.2026 03:44 1,3 °C 0,6 °C -2,2 °C 90 % 1002,0 hPa 0,0 l/m² 0 min 0 min 0 W/m² 16,1 km/h (3 Bft) 97,87 %
14.02.2026 03:46 1,3 °C 0,6 °C -2,2 °C 90 % 1002,1 hPa 0,0 l/m² 0 min 0 min 0 W/m² 19,3 km/h (3 Bft) 97,87 %
14.02.2026 03:48 1,3 °C 1,1 °C -2,2 °C 90 % 1002,1 hPa 0,0 l/m² 0 min 0 min 0 W/m² 12,9 km/h (3 Bft) 95,74 %
14.02.2026 03:50 1,3 °C 0,6 °C -2,2 °C 90 % 1002,1 hPa 0,0 l/m² 0 min 0 min 0 W/m² 25,7 km/h (4 Bft) 95,74 %
14.02.2026 03:52 1,3 °C 0,6 °C -2,2 °C 90 % 1002,1 hPa 0,0 l/m² 0 min 0 min 0 W/m² 6,4 km/h (2 Bft) 97,83 %
14.02.2026 03:54 1,3 °C 0,6 °C -2,2 °C 90 % 1002,1 hPa 0,0 l/m² 0 min 0 min 0 W/m² 16,1 km/h (3 Bft) 97,87 %
14.02.2026 03:56 1,3 °C 0,6 °C -2,2 °C 90 % 1002,2 hPa 0,0 l/m² 0 min 0 min 0 W/m² 12,9 km/h (3 Bft) 95,74 %
14.02.2026 03:58 1,3 °C 0,6 °C -2,2 °C 90 % 1002,2 hPa 0,0 l/m² 0 min 0 min 0 W/m² 9,7 km/h (2 Bft) 97,87 %
14.02.2026 04:00 1,2 °C 0,6 °C -2,8 °C 90 % 1002,2 hPa 0,0 l/m² 0 min 0 min 0 W/m² 12,9 km/h (3 Bft) 97,87 %
14.02.2026 04:02 1,2 °C 0,6 °C -2,8 °C 90 % 1002,3 hPa 0,0 l/m² 0 min 0 min 0 W/m² 9,7 km/h (2 Bft) 100,00 %
14.02.2026 04:04 1,2 °C 0,6 °C -2,8 °C 90 % 1002,3 hPa 0,0 l/m² 0 min 0 min 0 W/m² 22,5 km/h (4 Bft) 97,62 %
14.02.2026 04:06 1,2 °C 0,6 °C -2,8 °C 90 % 1002,3 hPa 0,0 l/m² 0 min 0 min 0 W/m² 16,1 km/h (3 Bft) 100,00 %
14.02.2026 04:08 1,2 °C 0,6 °C -2,8 °C 90 % 1002,3 hPa 0,0 l/m² 0 min 0 min 0 W/m² 12,9 km/h (3 Bft) 100,00 %
14.02.2026 04:10 1,2 °C 0,6 °C -2,8 °C 90 % 1002,4 hPa 0,0 l/m² 0 min 0 min 0 W/m² 12,9 km/h (3 Bft) 100,00 %
14.02.2026 04:12 1,2 °C 0,6 °C -2,8 °C 90 % 1002,4 hPa 0,0 l/m² 0 min 0 min 0 W/m² 9,7 km/h (2 Bft) 100,00 %
14.02.2026 04:14 1,2 °C 0,6 °C -2,8 °C 90 % 1002,5 hPa 0,0 l/m² 0 min 0 min 0 W/m² 6,4 km/h (2 Bft) 100,00 %
14.02.2026 04:16 1,2 °C 0,6 °C -2,2 °C 90 % 1002,5 hPa 0,0 l/m² 0 min 0 min 0 W/m² 16,1 km/h (3 Bft) 97,87 %
14.02.2026 04:18 1,1 °C 0,6 °C -2,8 °C 90 % 1002,6 hPa 0,0 l/m² 0 min 0 min 0 W/m² 22,5 km/h (4 Bft) 97,87 %
14.02.2026 04:20 1,2 °C 0,6 °C -2,8 °C 90 % 1002,6 hPa 0,0 l/m² 0 min 0 min 0 W/m² 12,9 km/h (3 Bft) 100,00 %
14.02.2026 04:22 1,2 °C 0,6 °C -2,8 °C 90 % 1002,6 hPa 0,0 l/m² 0 min 0 min 0 W/m² 6,4 km/h (2 Bft) 100,00 %
14.02.2026 04:24 1,1 °C 0,6 °C -2,8 °C 90 % 1002,7 hPa 0,0 l/m² 0 min 0 min 0 W/m² 6,4 km/h (2 Bft) 97,87 %
14.02.2026 04:26 1,2 °C 0,6 °C -2,8 °C 90 % 1002,7 hPa 0,0 l/m² 0 min 0 min 0 W/m² 6,4 km/h (2 Bft) 95,74 %
14.02.2026 04:28 1,2 °C 0,6 °C -2,8 °C 90 % 1002,7 hPa 0,0 l/m² 0 min 0 min 0 W/m² 12,9 km/h (3 Bft) 100,00 %
14.02.2026 04:30 1,1 °C 0,6 °C -2,8 °C 90 % 1002,8 hPa 0,0 l/m² 0 min 0 min 0 W/m² 6,4 km/h (2 Bft) 95,74 %
14.02.2026 04:32 1,1 °C 0,6 °C -2,8 °C 90 % 1002,8 hPa 0,0 l/m² 0 min 0 min 0 W/m² 12,9 km/h (3 Bft) 97,87 %
14.02.2026 04:34 1,2 °C 0,6 °C -2,8 °C 90 % 1002,9 hPa 0,0 l/m² 0 min 0 min 0 W/m² 19,3 km/h (3 Bft) 97,87 %
14.02.2026 04:36 1,1 °C 0,6 °C -2,8 °C 90 % 1002,9 hPa 0,0 l/m² 0 min 0 min 0 W/m² 16,1 km/h (3 Bft) 97,87 %
14.02.2026 04:38 1,1 °C 0,6 °C -2,8 °C 90 % 1002,9 hPa 0,0 l/m² 0 min 0 min 0 W/m² 9,7 km/h (2 Bft) 97,87 %
14.02.2026 04:40 1,1 °C 0,6 °C -2,8 °C 90 % 1002,9 hPa 0,0 l/m² 0 min 0 min 0 W/m² 12,9 km/h (3 Bft) 97,87 %
14.02.2026 04:42 1,1 °C 0,6 °C -2,8 °C 90 % 1003,0 hPa 0,0 l/m² 0 min 0 min 0 W/m² 9,7 km/h (2 Bft) 95,74 %
14.02.2026 04:44 1,1 °C 0,6 °C -2,8 °C 90 % 1003,0 hPa 0,0 l/m² 0 min 0 min 0 W/m² 12,9 km/h (3 Bft) 95,65 %
14.02.2026 04:46 1,1 °C 0,6 °C -2,8 °C 90 % 1003,0 hPa 0,0 l/m² 0 min 0 min 0 W/m² 16,1 km/h (3 Bft) 95,74 %
14.02.2026 04:48 1,1 °C 0,6 °C -2,8 °C 90 % 1003,1 hPa 0,0 l/m² 0 min 0 min 0 W/m² 3,2 km/h (1 Bft) 47,37 %
14.02.2026 04:50 1,1 °C 0,6 °C -2,8 °C 90 % 1003,2 hPa 0,0 l/m² 0 min 0 min 0 W/m² 9,7 km/h (2 Bft) 97,87 %
14.02.2026 04:52 1,1 °C 0,6 °C -2,8 °C 90 % 1003,3 hPa 0,0 l/m² 0 min 0 min 0 W/m² 12,9 km/h (3 Bft) 97,87 %
14.02.2026 04:54 1,1 °C 0,6 °C -2,8 °C 90 % 1003,3 hPa 0,0 l/m² 0 min 0 min 0 W/m² 16,1 km/h (3 Bft) 97,87 %
14.02.2026 04:56 1,1 °C 0,6 °C -2,8 °C 90 % 1003,4 hPa 0,0 l/m² 0 min 0 min 0 W/m² 3,2 km/h (1 Bft) 97,87 %
14.02.2026 04:58 1,1 °C 0,6 °C -2,8 °C 90 % 1003,4 hPa 0,0 l/m² 0 min 0 min 0 W/m² 9,7 km/h (2 Bft) 97,87 %
14.02.2026 05:00 1,1 °C 0,6 °C -2,8 °C 90 % 1003,5 hPa 0,0 l/m² 0 min 0 min 0 W/m² 12,9 km/h (3 Bft) 97,87 %
14.02.2026 05:02 1,1 °C 0,6 °C -2,8 °C 90 % 1003,5 hPa 0,0 l/m² 0 min 0 min 0 W/m² 19,3 km/h (3 Bft) 95,74 %
14.02.2026 05:04 1,1 °C 0,6 °C -2,8 °C 90 % 1003,5 hPa 0,0 l/m² 0 min 0 min 0 W/m² 9,7 km/h (2 Bft) 97,92 %
14.02.2026 05:06 1,1 °C 0,6 °C -2,8 °C 90 % 1003,6 hPa 0,0 l/m² 0 min 0 min 0 W/m² 19,3 km/h (3 Bft) 95,74 %
14.02.2026 05:08 1,0 °C 0,6 °C -2,8 °C 90 % 1003,6 hPa 0,0 l/m² 0 min 0 min 0 W/m² 16,1 km/h (3 Bft) 100,00 %
14.02.2026 05:10 1,0 °C 0,6 °C -2,8 °C 90 % 1003,6 hPa 0,0 l/m² 0 min 0 min 0 W/m² 19,3 km/h (3 Bft) 95,56 %
14.02.2026 05:12 0,9 °C 0,6 °C -2,8 °C 90 % 1003,6 hPa 0,0 l/m² 0 min 0 min 0 W/m² 12,9 km/h (3 Bft) 95,74 %
14.02.2026 05:14 0,9 °C 0,6 °C -2,8 °C 90 % 1003,7 hPa 0,0 l/m² 0 min 0 min 0 W/m² 29,0 km/h (5 Bft) 97,87 %
14.02.2026 05:16 0,9 °C 0,6 °C -2,8 °C 90 % 1003,7 hPa 0,0 l/m² 0 min 0 min 0 W/m² 16,1 km/h (3 Bft) 95,74 %
14.02.2026 05:18 0,9 °C 0,6 °C -2,8 °C 90 % 1003,8 hPa 0,0 l/m² 0 min 0 min 0 W/m² 25,7 km/h (4 Bft) 95,74 %
14.02.2026 05:20 0,9 °C 0,6 °C -2,8 °C 90 % 1003,8 hPa 0,0 l/m² 0 min 0 min 0 W/m² 22,5 km/h (4 Bft) 93,62 %
14.02.2026 05:22 0,9 °C 0,6 °C -2,8 °C 90 % 1003,9 hPa 0,0 l/m² 0 min 0 min 0 W/m² 6,4 km/h (2 Bft) 93,62 %
14.02.2026 05:24 0,9 °C 0,6 °C -2,8 °C 90 % 1003,9 hPa 0,0 l/m² 0 min 0 min 0 W/m² 6,4 km/h (2 Bft) 95,74 %
14.02.2026 05:26 0,9 °C 0,6 °C -2,8 °C 90 % 1004,0 hPa 0,0 l/m² 0 min 0 min 0 W/m² 12,9 km/h (3 Bft) 91,49 %
14.02.2026 05:28 0,9 °C 0,6 °C -2,8 °C 90 % 1004,0 hPa 0,0 l/m² 0 min 0 min 0 W/m² 12,9 km/h (3 Bft) 95,74 %
14.02.2026 05:30 0,9 °C 0,6 °C -2,8 °C 90 % 1004,1 hPa 0,0 l/m² 0 min 0 min 0 W/m² 6,4 km/h (2 Bft) 97,87 %
14.02.2026 05:32 0,9 °C 0,6 °C -2,8 °C 90 % 1004,1 hPa 0,0 l/m² 0 min 0 min 0 W/m² 9,7 km/h (2 Bft) 95,65 %
14.02.2026 05:34 0,9 °C 0,6 °C -2,8 °C 90 % 1004,1 hPa 0,0 l/m² 0 min 0 min 0 W/m² 12,9 km/h (3 Bft) 93,62 %
14.02.2026 05:36 0,9 °C 0,6 °C -2,8 °C 90 % 1004,2 hPa 0,0 l/m² 0 min 0 min 0 W/m² 12,9 km/h (3 Bft) 95,74 %
14.02.2026 05:38 0,9 °C 0,6 °C -2,8 °C 90 % 1004,2 hPa 0,0 l/m² 0 min 0 min 0 W/m² 6,4 km/h (2 Bft) 95,74 %
14.02.2026 05:40 0,9 °C 0,6 °C -2,8 °C 90 % 1004,2 hPa 0,0 l/m² 0 min 0 min 0 W/m² 9,7 km/h (2 Bft) 95,74 %
14.02.2026 05:42 0,9 °C 0,6 °C -2,8 °C 90 % 1004,3 hPa 0,0 l/m² 0 min 0 min 0 W/m² 12,9 km/h (3 Bft) 97,87 %
14.02.2026 05:44 0,9 °C 0,6 °C -2,8 °C 90 % 1004,3 hPa 0,0 l/m² 0 min 0 min 0 W/m² 19,3 km/h (3 Bft) 93,62 %
14.02.2026 05:46 0,8 °C 0,6 °C -2,8 °C 90 % 1004,3 hPa 0,0 l/m² 0 min 0 min 0 W/m² 12,9 km/h (3 Bft) 95,74 %
14.02.2026 05:48 0,8 °C 0,6 °C -2,8 °C 90 % 1004,4 hPa 0,0 l/m² 0 min 0 min 0 W/m² 6,4 km/h (2 Bft) 97,87 %
14.02.2026 05:50 0,8 °C 0,6 °C -2,8 °C 90 % 1004,4 hPa 0,0 l/m² 0 min 0 min 0 W/m² 9,7 km/h (2 Bft) 97,87 %
14.02.2026 05:52 0,8 °C 0,6 °C -2,8 °C 90 % 1004,4 hPa 0,0 l/m² 0 min 0 min 0 W/m² 22,5 km/h (4 Bft) 97,87 %
14.02.2026 05:54 0,8 °C 0,6 °C -2,8 °C 90 % 1004,4 hPa 0,0 l/m² 0 min 0 min 0 W/m² 16,1 km/h (3 Bft) 97,87 %
14.02.2026 05:56 0,8 °C 0,6 °C -2,8 °C 90 % 1004,4 hPa 0,0 l/m² 0 min 0 min 0 W/m² 16,1 km/h (3 Bft) 97,87 %
14.02.2026 05:58 0,8 °C 0,6 °C -2,8 °C 90 % 1004,5 hPa 0,0 l/m² 0 min 0 min 0 W/m² 12,9 km/h (3 Bft) 97,87 %
14.02.2026 06:00 0,8 °C 0,6 °C -2,8 °C 90 % 1004,5 hPa 0,0 l/m² 0 min 0 min 0 W/m² 19,3 km/h (3 Bft) 93,48 %
14.02.2026 06:02 0,8 °C 0,6 °C -2,8 °C 90 % 1004,5 hPa 0,0 l/m² 0 min 0 min 0 W/m² 9,7 km/h (2 Bft) 97,87 %
14.02.2026 06:04 0,8 °C 0,6 °C -2,8 °C 90 % 1004,5 hPa 0,0 l/m² 0 min 0 min 0 W/m² 9,7 km/h (2 Bft) 93,75 %
14.02.2026 06:07 0,8 °C 0,6 °C -2,8 °C 90 % 1004,6 hPa 0,0 l/m² 0 min 0 min 0 W/m² 9,7 km/h (2 Bft) 100,00 %
14.02.2026 06:08 0,8 °C 0,6 °C -2,8 °C 90 % 1004,6 hPa 0,0 l/m² 0 min 0 min 0 W/m² 12,9 km/h (3 Bft) 100,00 %
14.02.2026 06:12 0,8 °C 0,6 °C -2,8 °C 90 % 1004,7 hPa 0,0 l/m² 0 min 0 min 0 W/m² 12,9 km/h (3 Bft) 100,00 %
14.02.2026 06:14 0,8 °C 0,6 °C -2,8 °C 90 % 1004,7 hPa 0,0 l/m² 0 min 0 min 0 W/m² 12,9 km/h (3 Bft) 100,00 %
14.02.2026 06:16 0,8 °C 0,6 °C -2,8 °C 90 % 1004,7 hPa 0,0 l/m² 0 min 0 min 0 W/m² 19,3 km/h (3 Bft) 100,00 %
14.02.2026 06:18 0,8 °C 0,0 °C -2,8 °C 90 % 1004,8 hPa 0,0 l/m² 0 min 0 min 0 W/m² 12,9 km/h (3 Bft) 100,00 %
14.02.2026 06:20 0,8 °C 0,0 °C -2,8 °C 90 % 1004,8 hPa 0,0 l/m² 0 min 0 min 0 W/m² 19,3 km/h (3 Bft) 100,00 %
14.02.2026 06:22 0,8 °C 0,6 °C -2,8 °C 90 % 1004,8 hPa 0,0 l/m² 0 min 0 min 0 W/m² 12,9 km/h (3 Bft) 100,00 %
14.02.2026 06:24 0,8 °C 0,6 °C -2,8 °C 90 % 1004,8 hPa 0,0 l/m² 0 min 0 min 0 W/m² 16,1 km/h (3 Bft) 100,00 %
14.02.2026 06:26 0,8 °C 0,6 °C -2,8 °C 90 % 1004,8 hPa 0,0 l/m² 0 min 0 min 0 W/m² 22,5 km/h (4 Bft) 100,00 %
14.02.2026 06:28 0,7 °C 0,6 °C -2,8 °C 90 % 1004,9 hPa 0,0 l/m² 0 min 0 min 0 W/m² 22,5 km/h (4 Bft) 100,00 %
14.02.2026 06:30 0,7 °C 0,6 °C -2,8 °C 90 % 1004,9 hPa 0,0 l/m² 0 min 0 min 0 W/m² 22,5 km/h (4 Bft) 100,00 %
14.02.2026 06:32 0,7 °C 0,6 °C -2,8 °C 90 % 1004,9 hPa 0,0 l/m² 0 min 0 min 0 W/m² 16,1 km/h (3 Bft) 95,74 %
14.02.2026 06:34 0,7 °C 0,6 °C -2,8 °C 90 % 1005,0 hPa 0,0 l/m² 0 min 0 min 0 W/m² 9,7 km/h (2 Bft) 100,00 %
14.02.2026 06:36 0,7 °C 0,6 °C -2,8 °C 90 % 1005,0 hPa 0,0 l/m² 0 min 0 min 0 W/m² 16,1 km/h (3 Bft) 100,00 %
14.02.2026 06:38 0,7 °C 0,0 °C -2,8 °C 90 % 1005,1 hPa 0,0 l/m² 0 min 0 min 0 W/m² 16,1 km/h (3 Bft) 100,00 %
14.02.2026 06:40 0,7 °C 0,0 °C -2,8 °C 90 % 1005,1 hPa 0,0 l/m² 0 min 0 min 0 W/m² 9,7 km/h (2 Bft) 100,00 %
14.02.2026 06:42 0,7 °C 0,0 °C -2,8 °C 90 % 1005,1 hPa 0,0 l/m² 0 min 0 min 0 W/m² 12,9 km/h (3 Bft) 97,87 %
14.02.2026 06:44 0,7 °C 0,0 °C -2,8 °C 90 % 1005,1 hPa 0,0 l/m² 0 min 0 min 0 W/m² 16,1 km/h (3 Bft) 97,87 %
14.02.2026 06:46 0,7 °C 0,0 °C -2,8 °C 90 % 1005,1 hPa 0,0 l/m² 0 min 0 min 0 W/m² 12,9 km/h (3 Bft) 100,00 %
14.02.2026 06:48 0,7 °C 0,0 °C -2,8 °C 90 % 1005,1 hPa 0,0 l/m² 0 min 0 min 0 W/m² 12,9 km/h (3 Bft) 97,87 %
14.02.2026 06:50 0,7 °C 0,0 °C -2,8 °C 90 % 1005,2 hPa 0,0 l/m² 0 min 0 min 0 W/m² 9,7 km/h (2 Bft) 100,00 %
14.02.2026 06:52 0,7 °C 0,6 °C -2,8 °C 90 % 1005,2 hPa 0,0 l/m² 0 min 0 min 0 W/m² 9,7 km/h (2 Bft) 100,00 %
14.02.2026 06:54 0,7 °C 0,0 °C -2,8 °C 90 % 1005,2 hPa 0,0 l/m² 0 min 0 min 0 W/m² 16,1 km/h (3 Bft) 93,62 %
14.02.2026 06:56 0,6 °C 0,0 °C -2,8 °C 90 % 1005,3 hPa 0,0 l/m² 0 min 0 min 0 W/m² 9,7 km/h (2 Bft) 97,83 %
14.02.2026 06:58 0,6 °C 0,0 °C -2,8 °C 90 % 1005,3 hPa 0,0 l/m² 0 min 0 min 0 W/m² 12,9 km/h (3 Bft) 95,74 %
14.02.2026 07:00 0,6 °C 0,0 °C -2,8 °C 90 % 1005,4 hPa 0,0 l/m² 0 min 0 min 0 W/m² 9,7 km/h (2 Bft) 97,87 %
14.02.2026 07:02 0,6 °C 0,0 °C -2,8 °C 90 % 1005,5 hPa 0,0 l/m² 0 min 0 min 0 W/m² 16,1 km/h (3 Bft) 93,62 %
14.02.2026 07:04 0,6 °C 0,0 °C -2,8 °C 91 % 1005,5 hPa 0,0 l/m² 0 min 0 min 0 W/m² 12,9 km/h (3 Bft) 95,83 %
14.02.2026 07:06 0,7 °C 0,0 °C -2,8 °C 91 % 1005,6 hPa 0,0 l/m² 0 min 0 min 0 W/m² 16,1 km/h (3 Bft) 94,92 %
14.02.2026 07:08 0,7 °C 0,0 °C -2,8 °C 91 % 1005,7 hPa 0,0 l/m² 0 min 0 min 0 W/m² 19,3 km/h (3 Bft) 97,14 %
14.02.2026 07:10 0,6 °C 0,0 °C -2,8 °C 91 % 1005,7 hPa 0,0 l/m² 0 min 0 min 0 W/m² 12,9 km/h (3 Bft) 93,62 %
14.02.2026 07:12 0,6 °C 0,0 °C -2,8 °C 91 % 1005,7 hPa 0,0 l/m² 0 min 0 min 0 W/m² 9,7 km/h (2 Bft) 95,74 %
14.02.2026 07:14 0,6 °C 0,0 °C -2,8 °C 91 % 1005,8 hPa 0,0 l/m² 0 min 0 min 0 W/m² 16,1 km/h (3 Bft) 95,74 %
14.02.2026 07:16 0,6 °C 0,0 °C -3,3 °C 91 % 1005,9 hPa 0,0 l/m² 0 min 0 min 0 W/m² 12,9 km/h (3 Bft) 95,65 %
14.02.2026 07:18 0,6 °C 0,0 °C -3,3 °C 91 % 1006,0 hPa 0,0 l/m² 0 min 0 min 0 W/m² 19,3 km/h (3 Bft) 93,62 %
14.02.2026 07:20 0,6 °C 0,0 °C -3,3 °C 91 % 1006,0 hPa 0,0 l/m² 0 min 0 min 0 W/m² 19,3 km/h (3 Bft) 93,62 %
14.02.2026 07:22 0,6 °C 0,0 °C -3,3 °C 91 % 1006,0 hPa 0,0 l/m² 0 min 0 min 0 W/m² 19,3 km/h (3 Bft) 91,49 %
14.02.2026 07:24 0,6 °C 0,0 °C -3,3 °C 90 % 1006,1 hPa 0,0 l/m² 0 min 0 min 0 W/m² 9,7 km/h (2 Bft) 95,74 %
14.02.2026 07:26 0,6 °C 0,0 °C -3,3 °C 90 % 1006,1 hPa 0,0 l/m² 0 min 0 min 0 W/m² 9,7 km/h (2 Bft) 93,62 %
14.02.2026 07:28 0,6 °C 0,0 °C -3,3 °C 90 % 1006,2 hPa 0,0 l/m² 0 min 0 min 0 W/m² 16,1 km/h (3 Bft) 95,74 %
14.02.2026 07:30 0,6 °C 0,0 °C -3,3 °C 90 % 1006,2 hPa 0,0 l/m² 0 min 0 min 0 W/m² 16,1 km/h (3 Bft) 100,00 %
14.02.2026 07:32 0,6 °C 0,0 °C -3,3 °C 90 % 1006,2 hPa 0,0 l/m² 0 min 0 min 0 W/m² 12,9 km/h (3 Bft) 100,00 %
14.02.2026 07:34 0,6 °C 0,0 °C -3,3 °C 90 % 1006,3 hPa 0,0 l/m² 0 min 0 min 0 W/m² 12,9 km/h (3 Bft) 100,00 %
14.02.2026 07:36 0,6 °C 0,0 °C -3,3 °C 90 % 1006,4 hPa 0,0 l/m² 0 min 0 min 0 W/m² 9,7 km/h (2 Bft) 100,00 %
14.02.2026 07:38 0,6 °C 0,0 °C -2,8 °C 90 % 1006,5 hPa 0,0 l/m² 0 min 0 min 0 W/m² 16,1 km/h (3 Bft) 100,00 %
14.02.2026 07:40 0,6 °C 0,0 °C -3,3 °C 90 % 1006,5 hPa 0,0 l/m² 0 min 0 min 0 W/m² 12,9 km/h (3 Bft) 100,00 %
14.02.2026 07:42 0,6 °C 0,0 °C -2,8 °C 90 % 1006,6 hPa 0,0 l/m² 0 min 0 min 0 W/m² 12,9 km/h (3 Bft) 100,00 %
14.02.2026 07:44 0,6 °C 0,0 °C -2,8 °C 91 % 1006,6 hPa 0,0 l/m² 0 min 0 min 0 W/m² 16,1 km/h (3 Bft) 100,00 %
14.02.2026 07:46 0,6 °C 0,0 °C -2,8 °C 91 % 1006,7 hPa 0,0 l/m² 0 min 0 min 0 W/m² 16,1 km/h (3 Bft) 100,00 %
14.02.2026 07:48 0,6 °C 0,0 °C -3,3 °C 91 % 1006,7 hPa 0,0 l/m² 0 min 0 min 0 W/m² 9,7 km/h (2 Bft) 100,00 %
14.02.2026 07:50 0,6 °C 0,0 °C -3,3 °C 91 % 1006,8 hPa 0,0 l/m² 0 min 0 min 0 W/m² 9,7 km/h (2 Bft) 100,00 %
14.02.2026 07:52 0,6 °C 0,0 °C -3,3 °C 91 % 1006,8 hPa 0,0 l/m² 0 min 0 min 0 W/m² 12,9 km/h (3 Bft) 97,87 %
14.02.2026 07:54 0,6 °C 0,0 °C -3,3 °C 91 % 1006,9 hPa 0,0 l/m² 0 min 0 min 0 W/m² 12,9 km/h (3 Bft) 97,87 %
14.02.2026 07:56 0,6 °C 0,0 °C -3,3 °C 91 % 1006,9 hPa 0,0 l/m² 0 min 0 min 0 W/m² 25,7 km/h (4 Bft) 100,00 %
14.02.2026 07:58 0,6 °C 0,0 °C -3,3 °C 90 % 1007,0 hPa 0,0 l/m² 0 min 0 min 0 W/m² 19,3 km/h (3 Bft) 97,87 %
14.02.2026 08:00 0,6 °C 0,0 °C -3,3 °C 90 % 1007,0 hPa 0,0 l/m² 0 min 0 min 0 W/m² 16,1 km/h (3 Bft) 100,00 %
14.02.2026 08:02 0,6 °C 0,0 °C -3,3 °C 90 % 1007,1 hPa 0,0 l/m² 0 min 0 min 0 W/m² 9,7 km/h (2 Bft) 100,00 %
14.02.2026 08:04 0,6 °C 0,0 °C -3,3 °C 90 % 1007,1 hPa 0,0 l/m² 0 min 0 min 0 W/m² 16,1 km/h (3 Bft) 97,92 %
14.02.2026 08:06 0,6 °C 0,0 °C -3,3 °C 90 % 1007,2 hPa 0,0 l/m² 0 min 0 min 0 W/m² 6,4 km/h (2 Bft) 100,00 %
14.02.2026 08:08 0,6 °C 0,0 °C -3,3 °C 90 % 1007,2 hPa 0,0 l/m² 0 min 0 min 0 W/m² 6,4 km/h (2 Bft) 100,00 %
14.02.2026 08:10 0,6 °C 0,0 °C -3,3 °C 91 % 1007,3 hPa 0,0 l/m² 0 min 0 min 0 W/m² 12,9 km/h (3 Bft) 100,00 %
14.02.2026 08:12 0,6 °C 0,0 °C -3,3 °C 90 % 1007,4 hPa 0,0 l/m² 0 min 0 min 0 W/m² 19,3 km/h (3 Bft) 100,00 %
14.02.2026 08:14 0,5 °C 0,0 °C -3,3 °C 90 % 1007,5 hPa 0,0 l/m² 0 min 0 min 0 W/m² 19,3 km/h (3 Bft) 100,00 %
14.02.2026 08:16 0,5 °C 0,0 °C -3,3 °C 90 % 1007,5 hPa 0,0 l/m² 0 min 0 min 0 W/m² 9,7 km/h (2 Bft) 100,00 %
14.02.2026 08:18 0,5 °C 0,0 °C -3,3 °C 91 % 1007,5 hPa 0,0 l/m² 0 min 0 min 0 W/m² 12,9 km/h (3 Bft) 100,00 %
14.02.2026 08:20 0,5 °C 0,0 °C -3,3 °C 91 % 1007,5 hPa 0,0 l/m² 0 min 0 min 0 W/m² 16,1 km/h (3 Bft) 100,00 %
14.02.2026 08:22 0,5 °C 0,0 °C -3,3 °C 90 % 1007,5 hPa 0,0 l/m² 0 min 0 min 0 W/m² 16,1 km/h (3 Bft) 97,87 %
14.02.2026 08:24 0,5 °C 0,0 °C -3,3 °C 91 % 1007,5 hPa 0,0 l/m² 0 min 0 min 0 W/m² 12,9 km/h (3 Bft) 97,87 %
14.02.2026 08:26 0,4 °C 0,0 °C -3,3 °C 91 % 1007,5 hPa 0,0 l/m² 0 min 0 min 0 W/m² 25,7 km/h (4 Bft) 97,83 %
14.02.2026 08:28 0,4 °C 0,0 °C -3,3 °C 91 % 1007,6 hPa 0,0 l/m² 0 min 0 min 2 W/m² 12,9 km/h (3 Bft) 97,87 %
14.02.2026 08:30 0,4 °C 0,0 °C -3,3 °C 91 % 1007,7 hPa 0,0 l/m² 0 min 0 min 5 W/m² 12,9 km/h (3 Bft) 97,87 %
14.02.2026 08:32 0,4 °C 0,0 °C -3,3 °C 91 % 1007,7 hPa 0,0 l/m² 0 min 0 min 5 W/m² 16,1 km/h (3 Bft) 97,87 %
14.02.2026 08:34 0,4 °C 0,0 °C -3,3 °C 91 % 1007,8 hPa 0,0 l/m² 0 min 0 min 5 W/m² 16,1 km/h (3 Bft) 95,74 %
14.02.2026 08:36 0,4 °C 0,0 °C -3,3 °C 91 % 1007,8 hPa 0,0 l/m² 0 min 0 min 6 W/m² 16,1 km/h (3 Bft) 95,74 %
14.02.2026 08:38 0,4 °C 0,0 °C -3,3 °C 91 % 1007,8 hPa 0,0 l/m² 0 min 0 min 7 W/m² 9,7 km/h (2 Bft) 97,87 %
14.02.2026 08:40 0,4 °C 0,0 °C -3,3 °C 91 % 1007,9 hPa 0,0 l/m² 0 min 0 min 7 W/m² 6,4 km/h (2 Bft) 97,87 %
14.02.2026 08:42 0,4 °C 0,0 °C -3,3 °C 91 % 1007,9 hPa 0,0 l/m² 0 min 0 min 7 W/m² 12,9 km/h (3 Bft) 97,87 %
14.02.2026 08:44 0,4 °C 0,0 °C -3,3 °C 91 % 1008,0 hPa 0,0 l/m² 0 min 0 min 7 W/m² 16,1 km/h (3 Bft) 97,87 %
14.02.2026 08:46 0,4 °C 0,0 °C -3,3 °C 91 % 1008,1 hPa 0,0 l/m² 0 min 0 min 7 W/m² 12,9 km/h (3 Bft) 95,74 %
14.02.2026 08:48 0,4 °C 0,0 °C -3,3 °C 91 % 1008,1 hPa 0,0 l/m² 0 min 0 min 7 W/m² 3,2 km/h (1 Bft) 95,65 %
14.02.2026 08:50 0,4 °C 0,0 °C -3,3 °C 91 % 1008,2 hPa 0,0 l/m² 0 min 0 min 7 W/m² 16,1 km/h (3 Bft) 94,44 %
14.02.2026 08:52 0,4 °C 0,0 °C -3,3 °C 91 % 1008,2 hPa 0,0 l/m² 0 min 0 min 7 W/m² 9,7 km/h (2 Bft) 95,74 %
14.02.2026 08:54 0,5 °C 0,0 °C -3,3 °C 91 % 1008,2 hPa 0,0 l/m² 0 min 0 min 7 W/m² 16,1 km/h (3 Bft) 93,10 %
14.02.2026 08:56 0,4 °C 0,0 °C -3,3 °C 91 % 1008,3 hPa 0,0 l/m² 0 min 0 min 7 W/m² 9,7 km/h (2 Bft) 97,14 %
14.02.2026 08:58 0,5 °C 0,0 °C -3,3 °C 91 % 1008,3 hPa 0,0 l/m² 0 min 0 min 7 W/m² 9,7 km/h (2 Bft) 93,62 %
14.02.2026 09:00 0,5 °C 0,0 °C -3,3 °C 91 % 1008,3 hPa 0,0 l/m² 0 min 0 min 7 W/m² 3,2 km/h (1 Bft) 95,74 %
14.02.2026 09:02 0,5 °C 0,0 °C -3,3 °C 91 % 1008,3 hPa 0,0 l/m² 0 min 0 min 9 W/m² 6,4 km/h (2 Bft) 95,74 %
14.02.2026 09:04 0,5 °C 0,0 °C -3,3 °C 91 % 1008,3 hPa 0,0 l/m² 0 min 0 min 10 W/m² 9,7 km/h (2 Bft) 94,12 %
14.02.2026 09:06 0,6 °C 0,0 °C -3,3 °C 91 % 1008,4 hPa 0,0 l/m² 0 min 0 min 10 W/m² 19,3 km/h (3 Bft) 96,61 %
14.02.2026 09:08 0,5 °C 0,0 °C -3,3 °C 91 % 1008,5 hPa 0,0 l/m² 0 min 0 min 9 W/m² 12,9 km/h (3 Bft) 91,43 %
14.02.2026 09:10 0,5 °C 0,0 °C -3,3 °C 91 % 1008,5 hPa 0,0 l/m² 0 min 0 min 9 W/m² 3,2 km/h (1 Bft) 95,74 %
14.02.2026 09:12 0,5 °C 0,0 °C -3,3 °C 91 % 1008,5 hPa 0,0 l/m² 0 min 0 min 11 W/m² 6,4 km/h (2 Bft) 91,49 %
14.02.2026 09:14 0,5 °C 0,0 °C -3,3 °C 91 % 1008,6 hPa 0,0 l/m² 0 min 0 min 11 W/m² 12,9 km/h (3 Bft) 91,49 %
14.02.2026 09:16 0,5 °C 0,0 °C -3,3 °C 91 % 1008,6 hPa 0,0 l/m² 0 min 0 min 12 W/m² 6,4 km/h (2 Bft) 93,48 %
14.02.2026 09:18 0,5 °C 0,0 °C -3,3 °C 91 % 1008,7 hPa 0,0 l/m² 0 min 0 min 12 W/m² 12,9 km/h (3 Bft) 95,74 %
14.02.2026 09:20 0,6 °C 0,0 °C -3,3 °C 91 % 1008,7 hPa 0,0 l/m² 0 min 0 min 11 W/m² 6,4 km/h (2 Bft) 93,62 %
14.02.2026 09:22 0,6 °C 0,0 °C -3,3 °C 91 % 1008,8 hPa 0,0 l/m² 0 min 0 min 10 W/m² 9,7 km/h (2 Bft) 97,87 %
14.02.2026 09:24 0,6 °C 0,0 °C -3,3 °C 91 % 1008,8 hPa 0,0 l/m² 0 min 0 min 11 W/m² 16,1 km/h (3 Bft) 95,74 %
14.02.2026 09:26 0,5 °C 0,0 °C -3,3 °C 91 % 1008,8 hPa 0,0 l/m² 0 min 0 min 12 W/m² 9,7 km/h (2 Bft) 97,87 %
14.02.2026 09:28 0,5 °C 0,0 °C -3,3 °C 91 % 1008,8 hPa 0,0 l/m² 0 min 0 min 12 W/m² 16,1 km/h (3 Bft) 97,87 %
14.02.2026 09:30 0,5 °C 0,0 °C -3,3 °C 91 % 1008,8 hPa 0,0 l/m² 0 min 0 min 12 W/m² 6,4 km/h (2 Bft) 97,87 %
14.02.2026 09:32 0,6 °C 0,0 °C -3,3 °C 91 % 1008,8 hPa 0,0 l/m² 0 min 0 min 13 W/m² 9,7 km/h (2 Bft) 95,74 %
14.02.2026 09:34 0,6 °C 0,0 °C -3,3 °C 91 % 1008,9 hPa 0,0 l/m² 0 min 0 min 14 W/m² 16,1 km/h (3 Bft) 97,87 %
14.02.2026 09:36 0,6 °C 0,0 °C -3,3 °C 91 % 1008,9 hPa 0,0 l/m² 0 min 0 min 13 W/m² 22,5 km/h (4 Bft) 97,87 %
14.02.2026 09:38 0,6 °C 0,0 °C -3,3 °C 91 % 1008,9 hPa 0,0 l/m² 0 min 0 min 12 W/m² 9,7 km/h (2 Bft) 97,87 %
14.02.2026 09:40 0,5 °C 0,0 °C -3,3 °C 91 % 1009,0 hPa 0,0 l/m² 0 min 0 min 12 W/m² 12,9 km/h (3 Bft) 97,83 %
14.02.2026 09:42 0,5 °C 0,0 °C -3,3 °C 91 % 1009,1 hPa 0,0 l/m² 0 min 0 min 14 W/m² 19,3 km/h (3 Bft) 95,74 %
14.02.2026 09:44 0,5 °C 0,0 °C -3,3 °C 91 % 1009,1 hPa 0,0 l/m² 0 min 0 min 15 W/m² 6,4 km/h (2 Bft) 97,87 %
14.02.2026 09:46 0,5 °C 0,0 °C -3,3 °C 91 % 1009,1 hPa 0,0 l/m² 0 min 0 min 16 W/m² 12,9 km/h (3 Bft) 97,87 %
14.02.2026 09:48 0,5 °C 0,0 °C -3,3 °C 91 % 1009,2 hPa 0,0 l/m² 0 min 0 min 16 W/m² 12,9 km/h (3 Bft) 97,87 %
14.02.2026 09:50 0,5 °C 0,0 °C -3,3 °C 91 % 1009,2 hPa 0,0 l/m² 0 min 0 min 14 W/m² 16,1 km/h (3 Bft) 97,87 %
14.02.2026 09:52 0,5 °C 0,0 °C -3,3 °C 91 % 1009,2 hPa 0,0 l/m² 0 min 0 min 14 W/m² 6,4 km/h (2 Bft) 95,74 %
14.02.2026 09:54 0,5 °C 0,0 °C -3,3 °C 91 % 1009,3 hPa 0,0 l/m² 0 min 0 min 14 W/m² 12,9 km/h (3 Bft) 97,87 %
14.02.2026 09:56 0,5 °C 0,0 °C -3,3 °C 91 % 1009,4 hPa 0,0 l/m² 0 min 0 min 15 W/m² 9,7 km/h (2 Bft) 97,87 %
14.02.2026 09:58 0,6 °C 0,0 °C -3,3 °C 91 % 1009,4 hPa 0,0 l/m² 0 min 0 min 17 W/m² 12,9 km/h (3 Bft) 97,87 %
14.02.2026 10:00 0,6 °C 0,0 °C -3,3 °C 91 % 1009,4 hPa 0,0 l/m² 0 min 0 min 18 W/m² 9,7 km/h (2 Bft) 100,00 %
14.02.2026 10:02 0,6 °C 0,0 °C -3,3 °C 91 % 1009,5 hPa 0,0 l/m² 0 min 0 min 19 W/m² 19,3 km/h (3 Bft) 97,87 %
14.02.2026 10:04 0,6 °C 0,0 °C -3,3 °C 91 % 1009,5 hPa 0,0 l/m² 0 min 0 min 19 W/m² 25,7 km/h (4 Bft) 97,92 %
14.02.2026 10:06 0,6 °C 0,0 °C -3,3 °C 91 % 1009,5 hPa 0,0 l/m² 0 min 0 min 18 W/m² 22,5 km/h (4 Bft) 67,27 %
14.02.2026 10:08 0,6 °C 0,0 °C -3,3 °C 91 % 1009,6 hPa 0,0 l/m² 0 min 0 min 19 W/m² 16,1 km/h (3 Bft) 95,83 %
14.02.2026 10:10 0,5 °C 0,0 °C -3,3 °C 90 % 1009,6 hPa 0,0 l/m² 0 min 0 min 19 W/m² 16,1 km/h (3 Bft) 100,00 %
14.02.2026 10:12 0,5 °C 0,0 °C -3,3 °C 90 % 1009,6 hPa 0,0 l/m² 0 min 0 min 20 W/m² 12,9 km/h (3 Bft) 100,00 %
14.02.2026 10:14 0,5 °C 0,0 °C -3,3 °C 90 % 1009,5 hPa 0,0 l/m² 0 min 0 min 21 W/m² 16,1 km/h (3 Bft) 97,87 %
14.02.2026 10:16 0,5 °C 0,0 °C -3,3 °C 90 % 1009,6 hPa 0,0 l/m² 0 min 0 min 22 W/m² 12,9 km/h (3 Bft) 100,00 %
14.02.2026 10:18 0,5 °C 0,0 °C -3,3 °C 90 % 1009,6 hPa 0,0 l/m² 0 min 0 min 24 W/m² 9,7 km/h (2 Bft) 100,00 %
14.02.2026 10:20 0,5 °C 0,0 °C -3,3 °C 90 % 1009,6 hPa 0,0 l/m² 0 min 0 min 23 W/m² 12,9 km/h (3 Bft) 98,00 %
14.02.2026 10:22 0,5 °C 0,0 °C -3,3 °C 90 % 1009,6 hPa 0,0 l/m² 0 min 0 min 24 W/m² 19,3 km/h (3 Bft) 100,00 %
14.02.2026 10:24 0,5 °C 0,0 °C -3,3 °C 90 % 1009,6 hPa 0,0 l/m² 0 min 0 min 21 W/m² 12,9 km/h (3 Bft) 100,00 %
14.02.2026 10:26 0,5 °C 0,0 °C -3,3 °C 90 % 1009,7 hPa 0,0 l/m² 0 min 0 min 20 W/m² 19,3 km/h (3 Bft) 100,00 %
14.02.2026 10:28 0,6 °C 0,0 °C -3,3 °C 90 % 1009,7 hPa 0,0 l/m² 0 min 0 min 19 W/m² 16,1 km/h (3 Bft) 100,00 %
14.02.2026 10:30 0,6 °C 0,0 °C -3,3 °C 90 % 1009,8 hPa 0,0 l/m² 0 min 0 min 19 W/m² 12,9 km/h (3 Bft) 100,00 %
14.02.2026 10:32 0,5 °C 0,0 °C -3,3 °C 90 % 1009,8 hPa 0,0 l/m² 0 min 0 min 19 W/m² 32,2 km/h (5 Bft) 100,00 %
14.02.2026 10:34 0,5 °C 0,0 °C -3,3 °C 90 % 1009,8 hPa 0,0 l/m² 0 min 0 min 19 W/m² 9,7 km/h (2 Bft) 97,87 %
14.02.2026 10:36 0,5 °C 0,0 °C -2,8 °C 90 % 1009,9 hPa 0,0 l/m² 0 min 0 min 19 W/m² 12,9 km/h (3 Bft) 97,87 %
14.02.2026 10:38 0,6 °C 0,0 °C -3,3 °C 90 % 1009,9 hPa 0,0 l/m² 0 min 0 min 19 W/m² 6,4 km/h (2 Bft) 97,87 %
14.02.2026 10:40 0,6 °C 0,6 °C -2,8 °C 90 % 1009,9 hPa 0,0 l/m² 0 min 0 min 20 W/m² 6,4 km/h (2 Bft) 97,87 %
14.02.2026 10:42 0,6 °C 0,6 °C -3,3 °C 90 % 1010,0 hPa 0,0 l/m² 0 min 0 min 20 W/m² 16,1 km/h (3 Bft) 97,87 %
14.02.2026 10:44 0,6 °C 0,0 °C -3,3 °C 90 % 1010,0 hPa 0,0 l/m² 0 min 0 min 22 W/m² 12,9 km/h (3 Bft) 97,83 %
14.02.2026 10:46 0,6 °C 0,0 °C -3,3 °C 90 % 1010,0 hPa 0,0 l/m² 0 min 0 min 27 W/m² 16,1 km/h (3 Bft) 97,73 %
14.02.2026 10:48 0,6 °C 0,6 °C -3,3 °C 90 % 1010,0 hPa 0,0 l/m² 0 min 0 min 32 W/m² 29,0 km/h (5 Bft) 97,87 %
14.02.2026 10:50 0,6 °C 0,6 °C -3,3 °C 90 % 1010,0 hPa 0,0 l/m² 0 min 0 min 34 W/m² 19,3 km/h (3 Bft) 98,00 %
14.02.2026 10:52 0,6 °C 0,6 °C -3,3 °C 90 % 1010,1 hPa 0,0 l/m² 0 min 0 min 39 W/m² 12,9 km/h (3 Bft) 93,62 %
14.02.2026 10:54 0,6 °C 0,6 °C -2,8 °C 90 % 1010,1 hPa 0,0 l/m² 0 min 0 min 42 W/m² 12,9 km/h (3 Bft) 97,87 %
14.02.2026 10:56 0,6 °C 0,6 °C -2,8 °C 90 % 1010,1 hPa 0,0 l/m² 0 min 0 min 43 W/m² 9,7 km/h (2 Bft) 95,74 %
14.02.2026 10:58 0,6 °C 0,6 °C -2,8 °C 90 % 1010,2 hPa 0,0 l/m² 0 min 0 min 46 W/m² 6,4 km/h (2 Bft) 97,87 %
14.02.2026 11:00 0,6 °C 0,6 °C -2,8 °C 90 % 1010,2 hPa 0,0 l/m² 0 min 0 min 46 W/m² 9,7 km/h (2 Bft) 97,87 %
14.02.2026 11:02 0,6 °C 0,6 °C -2,8 °C 90 % 1010,2 hPa 0,0 l/m² 0 min 0 min 46 W/m² 9,7 km/h (2 Bft) 97,87 %
14.02.2026 11:04 0,6 °C 0,6 °C -2,8 °C 90 % 1010,3 hPa 0,0 l/m² 0 min 0 min 46 W/m² 9,7 km/h (2 Bft) 100,00 %
14.02.2026 11:06 0,6 °C 0,6 °C -2,8 °C 90 % 1010,3 hPa 0,0 l/m² 0 min 0 min 44 W/m² 12,9 km/h (3 Bft) 100,00 %
14.02.2026 11:08 0,6 °C 0,6 °C -2,8 °C 90 % 1010,3 hPa 0,0 l/m² 0 min 0 min 41 W/m² 16,1 km/h (3 Bft) 97,87 %
14.02.2026 11:10 0,6 °C 0,6 °C -2,8 °C 90 % 1010,4 hPa 0,0 l/m² 0 min 0 min 40 W/m² 16,1 km/h (3 Bft) 100,00 %
14.02.2026 11:12 0,6 °C 0,6 °C -2,8 °C 90 % 1010,4 hPa 0,0 l/m² 0 min 0 min 44 W/m² 9,7 km/h (2 Bft) 97,87 %
14.02.2026 11:14 0,7 °C 0,6 °C -2,8 °C 90 % 1010,5 hPa 0,0 l/m² 0 min 0 min 43 W/m² 9,7 km/h (2 Bft) 100,00 %
14.02.2026 11:16 0,7 °C 0,6 °C -2,8 °C 90 % 1010,6 hPa 0,0 l/m² 0 min 0 min 41 W/m² 19,3 km/h (3 Bft) 100,00 %
14.02.2026 11:18 0,7 °C 0,6 °C -2,8 °C 90 % 1010,6 hPa 0,0 l/m² 0 min 0 min 44 W/m² 6,4 km/h (2 Bft) 100,00 %
14.02.2026 11:20 0,7 °C 0,6 °C -2,8 °C 90 % 1010,7 hPa 0,0 l/m² 0 min 0 min 44 W/m² 9,7 km/h (2 Bft) 95,74 %
14.02.2026 11:22 0,7 °C 0,6 °C -2,8 °C 90 % 1010,7 hPa 0,0 l/m² 0 min 0 min 43 W/m² 12,9 km/h (3 Bft) 97,87 %
14.02.2026 11:24 0,7 °C 0,6 °C -2,8 °C 90 % 1010,7 hPa 0,0 l/m² 0 min 0 min 40 W/m² 12,9 km/h (3 Bft) 100,00 %
14.02.2026 11:26 0,7 °C 0,6 °C -2,8 °C 90 % 1010,8 hPa 0,0 l/m² 0 min 0 min 39 W/m² 12,9 km/h (3 Bft) 97,87 %
14.02.2026 11:28 0,7 °C 0,6 °C -2,8 °C 90 % 1010,8 hPa 0,0 l/m² 0 min 0 min 40 W/m² 16,1 km/h (3 Bft) 100,00 %
14.02.2026 11:30 0,7 °C 0,6 °C -2,8 °C 90 % 1010,9 hPa 0,0 l/m² 0 min 0 min 42 W/m² 16,1 km/h (3 Bft) 97,87 %
14.02.2026 11:32 0,7 °C 0,6 °C -2,8 °C 90 % 1010,9 hPa 0,0 l/m² 0 min 0 min 48 W/m² 12,9 km/h (3 Bft) 100,00 %
14.02.2026 11:34 0,7 °C 0,6 °C -2,8 °C 90 % 1010,9 hPa 0,0 l/m² 0 min 0 min 56 W/m² 16,1 km/h (3 Bft) 100,00 %
14.02.2026 11:36 0,7 °C 0,6 °C -2,8 °C 90 % 1011,0 hPa 0,0 l/m² 0 min 0 min 54 W/m² 12,9 km/h (3 Bft) 100,00 %
14.02.2026 11:38 0,7 °C 0,6 °C -2,8 °C 90 % 1011,0 hPa 0,0 l/m² 0 min 0 min 53 W/m² 9,7 km/h (2 Bft) 89,36 %
14.02.2026 11:40 0,7 °C 0,6 °C -2,8 °C 90 % 1011,0 hPa 0,0 l/m² 0 min 0 min 51 W/m² 6,4 km/h (2 Bft) 56,10 %
14.02.2026 11:42 0,8 °C 1,1 °C -2,8 °C 90 % 1011,0 hPa 0,0 l/m² 0 min 0 min 48 W/m² 9,7 km/h (2 Bft) 97,87 %
14.02.2026 11:44 0,8 °C 0,6 °C -2,8 °C 90 % 1011,0 hPa 0,0 l/m² 0 min 0 min 48 W/m² 19,3 km/h (3 Bft) 95,74 %
14.02.2026 11:46 0,8 °C 0,6 °C -2,8 °C 90 % 1011,1 hPa 0,0 l/m² 0 min 0 min 53 W/m² 12,9 km/h (3 Bft) 93,62 %
14.02.2026 11:48 0,8 °C 0,6 °C -2,8 °C 90 % 1011,2 hPa 0,0 l/m² 0 min 0 min 57 W/m² 19,3 km/h (3 Bft) 93,62 %
14.02.2026 11:50 0,8 °C 0,6 °C -2,8 °C 90 % 1011,2 hPa 0,0 l/m² 0 min 0 min 54 W/m² 12,9 km/h (3 Bft) 91,49 %
14.02.2026 11:52 0,8 °C 0,6 °C -2,8 °C 90 % 1011,2 hPa 0,0 l/m² 0 min 0 min 53 W/m² 12,9 km/h (3 Bft) 91,49 %
14.02.2026 11:54 0,8 °C 0,6 °C -2,8 °C 90 % 1011,3 hPa 0,0 l/m² 0 min 0 min 51 W/m² 9,7 km/h (2 Bft) 93,62 %
14.02.2026 11:56 0,8 °C 0,6 °C -2,8 °C 90 % 1011,3 hPa 0,0 l/m² 0 min 0 min 46 W/m² 6,4 km/h (2 Bft) 95,65 %
14.02.2026 11:58 0,8 °C 0,6 °C -2,8 °C 90 % 1011,3 hPa 0,0 l/m² 0 min 0 min 44 W/m² 16,1 km/h (3 Bft) 95,74 %
14.02.2026 12:00 0,8 °C 0,6 °C -2,8 °C 90 % 1011,3 hPa 0,0 l/m² 0 min 0 min 47 W/m² 12,9 km/h (3 Bft) 93,62 %
14.02.2026 12:02 0,8 °C 0,6 °C -2,8 °C 90 % 1011,4 hPa 0,0 l/m² 0 min 0 min 43 W/m² 6,4 km/h (2 Bft) 95,74 %
14.02.2026 12:04 0,8 °C 0,6 °C -2,8 °C 90 % 1011,4 hPa 0,0 l/m² 0 min 0 min 39 W/m² 12,9 km/h (3 Bft) 95,83 %
14.02.2026 12:07 0,8 °C 0,6 °C -2,8 °C 90 % 1011,4 hPa 0,0 l/m² 0 min 0 min 40 W/m² 22,5 km/h (4 Bft) 96,10 %
14.02.2026 12:08 0,8 °C 0,6 °C -2,8 °C 89 % 1011,4 hPa 0,0 l/m² 0 min 0 min 38 W/m² 19,3 km/h (3 Bft) 83,33 %
14.02.2026 12:12 0,8 °C 0,6 °C -2,8 °C 89 % 1011,4 hPa 0,0 l/m² 0 min 0 min 38 W/m² 12,9 km/h (3 Bft) 94,55 %
14.02.2026 12:14 0,8 °C 0,6 °C -2,8 °C 89 % 1011,4 hPa 0,0 l/m² 0 min 0 min 41 W/m² 16,1 km/h (3 Bft) 95,74 %
14.02.2026 12:16 0,8 °C 0,6 °C -2,8 °C 89 % 1011,4 hPa 0,0 l/m² 0 min 0 min 46 W/m² 29,0 km/h (5 Bft) 95,74 %
14.02.2026 12:18 0,8 °C 0,6 °C -2,8 °C 89 % 1011,5 hPa 0,0 l/m² 0 min 0 min 47 W/m² 12,9 km/h (3 Bft) 91,30 %
14.02.2026 12:20 0,8 °C 0,6 °C -2,8 °C 89 % 1011,5 hPa 0,0 l/m² 0 min 0 min 46 W/m² 16,1 km/h (3 Bft) 93,62 %
14.02.2026 12:22 0,8 °C 0,6 °C -2,8 °C 89 % 1011,5 hPa 0,0 l/m² 0 min 0 min 43 W/m² 19,3 km/h (3 Bft) 93,62 %
14.02.2026 12:24 0,8 °C 0,6 °C -2,8 °C 89 % 1011,6 hPa 0,0 l/m² 0 min 0 min 40 W/m² 9,7 km/h (2 Bft) 91,49 %
14.02.2026 12:26 0,8 °C 0,6 °C -2,8 °C 89 % 1011,6 hPa 0,0 l/m² 0 min 0 min 40 W/m² 19,3 km/h (3 Bft) 93,62 %
14.02.2026 12:28 0,7 °C 0,6 °C -2,8 °C 89 % 1011,7 hPa 0,0 l/m² 0 min 0 min 44 W/m² 12,9 km/h (3 Bft) 93,62 %
14.02.2026 12:30 0,7 °C 0,6 °C -2,8 °C 89 % 1011,7 hPa 0,0 l/m² 0 min 0 min 46 W/m² 16,1 km/h (3 Bft) 97,87 %
14.02.2026 12:32 0,8 °C 0,6 °C -2,8 °C 89 % 1011,7 hPa 0,0 l/m² 0 min 0 min 48 W/m² 16,1 km/h (3 Bft) 95,74 %
14.02.2026 12:34 0,8 °C 0,6 °C -2,8 °C 89 % 1011,7 hPa 0,0 l/m² 0 min 0 min 50 W/m² 6,4 km/h (2 Bft) 95,74 %
14.02.2026 12:36 0,8 °C 0,6 °C -2,8 °C 89 % 1011,8 hPa 0,0 l/m² 0 min 0 min 48 W/m² 12,9 km/h (3 Bft) 97,87 %
14.02.2026 12:38 0,8 °C 0,6 °C -2,8 °C 89 % 1011,9 hPa 0,0 l/m² 0 min 0 min 51 W/m² 9,7 km/h (2 Bft) 97,87 %
14.02.2026 12:40 0,8 °C 1,1 °C -2,8 °C 89 % 1011,9 hPa 0,0 l/m² 0 min 0 min 56 W/m² 6,4 km/h (2 Bft) 95,65 %
14.02.2026 12:42 0,8 °C 1,1 °C -2,8 °C 89 % 1011,9 hPa 0,0 l/m² 0 min 0 min 55 W/m² 19,3 km/h (3 Bft) 97,87 %
14.02.2026 12:44 0,8 °C 1,1 °C -2,8 °C 89 % 1011,9 hPa 0,0 l/m² 0 min 0 min 50 W/m² 9,7 km/h (2 Bft) 97,87 %
14.02.2026 12:46 0,9 °C 0,6 °C -2,8 °C 89 % 1011,9 hPa 0,0 l/m² 0 min 0 min 51 W/m² 22,5 km/h (4 Bft) 97,87 %
14.02.2026 12:48 0,9 °C 1,1 °C -2,8 °C 89 % 1012,0 hPa 0,0 l/m² 0 min 0 min 55 W/m² 9,7 km/h (2 Bft) 95,74 %
14.02.2026 12:50 0,9 °C 1,1 °C -2,8 °C 89 % 1012,0 hPa 0,0 l/m² 0 min 0 min 60 W/m² 16,1 km/h (3 Bft) 97,87 %
14.02.2026 12:52 0,9 °C 1,1 °C -2,8 °C 89 % 1012,0 hPa 0,0 l/m² 0 min 0 min 67 W/m² 9,7 km/h (2 Bft) 97,87 %
14.02.2026 12:54 0,9 °C 1,1 °C -2,8 °C 89 % 1012,0 hPa 0,0 l/m² 0 min 0 min 71 W/m² 9,7 km/h (2 Bft) 97,87 %
14.02.2026 12:56 0,9 °C 1,1 °C -2,2 °C 89 % 1012,1 hPa 0,0 l/m² 0 min 0 min 73 W/m² 9,7 km/h (2 Bft) 100,00 %
14.02.2026 12:58 0,9 °C 1,1 °C -2,2 °C 89 % 1012,1 hPa 0,0 l/m² 0 min 0 min 70 W/m² 9,7 km/h (2 Bft) 100,00 %
14.02.2026 13:00 0,9 °C 1,1 °C -2,8 °C 89 % 1012,1 hPa 0,0 l/m² 0 min 0 min 65 W/m² 19,3 km/h (3 Bft) 100,00 %
14.02.2026 13:02 1,0 °C 1,1 °C -2,2 °C 89 % 1012,2 hPa 0,0 l/m² 0 min 0 min 63 W/m² 16,1 km/h (3 Bft) 100,00 %
14.02.2026 13:04 1,0 °C 1,1 °C -2,8 °C 89 % 1012,2 hPa 0,0 l/m² 0 min 0 min 60 W/m² 19,3 km/h (3 Bft) 100,00 %
14.02.2026 13:06 1,0 °C 1,1 °C -2,8 °C 88 % 1012,2 hPa 0,0 l/m² 0 min 0 min 54 W/m² 29,0 km/h (5 Bft) 100,00 %
14.02.2026 13:08 0,9 °C 1,1 °C -2,8 °C 88 % 1012,3 hPa 0,0 l/m² 0 min 0 min 58 W/m² 29,0 km/h (5 Bft) 97,87 %
14.02.2026 13:10 0,9 °C 1,1 °C -2,8 °C 88 % 1012,3 hPa 0,0 l/m² 0 min 0 min 55 W/m² 19,3 km/h (3 Bft) 100,00 %
14.02.2026 13:12 0,9 °C 1,1 °C -2,8 °C 88 % 1012,2 hPa 0,0 l/m² 0 min 0 min 56 W/m² 12,9 km/h (3 Bft) 100,00 %
14.02.2026 13:14 1,0 °C 1,1 °C -2,8 °C 88 % 1012,3 hPa 0,0 l/m² 0 min 0 min 63 W/m² 16,1 km/h (3 Bft) 100,00 %
14.02.2026 13:16 1,0 °C 1,1 °C -2,8 °C 88 % 1012,4 hPa 0,0 l/m² 0 min 0 min 65 W/m² 12,9 km/h (3 Bft) 100,00 %
14.02.2026 13:18 1,0 °C 1,1 °C -2,8 °C 88 % 1012,4 hPa 0,0 l/m² 0 min 0 min 59 W/m² 19,3 km/h (3 Bft) 100,00 %
14.02.2026 13:20 1,0 °C 1,1 °C -2,8 °C 88 % 1012,4 hPa 0,0 l/m² 0 min 0 min 63 W/m² 16,1 km/h (3 Bft) 100,00 %
14.02.2026 13:22 1,0 °C 1,1 °C -2,8 °C 88 % 1012,4 hPa 0,0 l/m² 0 min 0 min 66 W/m² 9,7 km/h (2 Bft) 97,87 %
14.02.2026 13:24 1,0 °C 1,1 °C -2,8 °C 88 % 1012,4 hPa 0,0 l/m² 0 min 0 min 68 W/m² 22,5 km/h (4 Bft) 100,00 %
14.02.2026 13:26 1,0 °C 1,1 °C -2,2 °C 88 % 1012,5 hPa 0,0 l/m² 0 min 0 min 63 W/m² 16,1 km/h (3 Bft) 100,00 %
14.02.2026 13:28 1,0 °C 1,1 °C -2,8 °C 88 % 1012,4 hPa 0,0 l/m² 0 min 0 min 62 W/m² 16,1 km/h (3 Bft) 100,00 %
14.02.2026 13:30 1,0 °C 1,1 °C -2,2 °C 88 % 1012,5 hPa 0,0 l/m² 0 min 0 min 72 W/m² 19,3 km/h (3 Bft) 100,00 %
14.02.2026 13:32 1,0 °C 1,1 °C -2,2 °C 88 % 1012,5 hPa 0,0 l/m² 0 min 0 min 73 W/m² 12,9 km/h (3 Bft) 100,00 %
14.02.2026 13:34 1,1 °C 1,1 °C -2,2 °C 88 % 1012,5 hPa 0,0 l/m² 0 min 0 min 66 W/m² 16,1 km/h (3 Bft) 100,00 %
14.02.2026 13:36 1,0 °C 1,1 °C -2,8 °C 88 % 1012,6 hPa 0,0 l/m² 0 min 0 min 61 W/m² 12,9 km/h (3 Bft) 100,00 %
14.02.2026 13:38 1,1 °C 1,1 °C -2,2 °C 88 % 1012,6 hPa 0,0 l/m² 0 min 0 min 58 W/m² 16,1 km/h (3 Bft) 100,00 %
14.02.2026 13:40 1,1 °C 1,1 °C -2,2 °C 88 % 1012,7 hPa 0,0 l/m² 0 min 0 min 59 W/m² 12,9 km/h (3 Bft) 100,00 %
14.02.2026 13:42 1,1 °C 1,1 °C -2,2 °C 88 % 1012,6 hPa 0,0 l/m² 0 min 0 min 63 W/m² 16,1 km/h (3 Bft) 97,87 %
14.02.2026 13:44 1,1 °C 1,1 °C -2,2 °C 88 % 1012,6 hPa 0,0 l/m² 0 min 0 min 63 W/m² 12,9 km/h (3 Bft) 97,87 %
14.02.2026 13:46 1,1 °C 1,1 °C -2,2 °C 88 % 1012,7 hPa 0,0 l/m² 0 min 0 min 63 W/m² 19,3 km/h (3 Bft) 97,87 %
14.02.2026 13:48 1,1 °C 1,1 °C -2,2 °C 88 % 1012,7 hPa 0,0 l/m² 0 min 0 min 58 W/m² 19,3 km/h (3 Bft) 100,00 %
14.02.2026 13:50 1,1 °C 1,1 °C -2,2 °C 87 % 1012,7 hPa 0,0 l/m² 0 min 0 min 62 W/m² 16,1 km/h (3 Bft) 95,74 %
14.02.2026 13:52 1,1 °C 1,1 °C -2,2 °C 87 % 1012,8 hPa 0,0 l/m² 0 min 0 min 61 W/m² 16,1 km/h (3 Bft) 97,87 %
14.02.2026 13:54 1,1 °C 1,1 °C -2,8 °C 87 % 1012,7 hPa 0,0 l/m² 0 min 0 min 59 W/m² 19,3 km/h (3 Bft) 100,00 %
14.02.2026 13:56 1,1 °C 1,1 °C -2,2 °C 87 % 1012,9 hPa 0,0 l/m² 0 min 0 min 58 W/m² 12,9 km/h (3 Bft) 100,00 %
14.02.2026 13:58 1,1 °C 1,1 °C -2,2 °C 87 % 1012,9 hPa 0,0 l/m² 0 min 0 min 57 W/m² 12,9 km/h (3 Bft) 95,74 %
14.02.2026 14:00 1,1 °C 1,1 °C -2,8 °C 87 % 1012,9 hPa 0,0 l/m² 0 min 0 min 60 W/m² 29,0 km/h (5 Bft) 100,00 %
14.02.2026 14:02 1,1 °C 1,1 °C -2,8 °C 87 % 1012,9 hPa 0,0 l/m² 0 min 0 min 64 W/m² 19,3 km/h (3 Bft) 100,00 %
14.02.2026 14:04 1,1 °C 1,1 °C -2,2 °C 87 % 1012,9 hPa 0,0 l/m² 0 min 0 min 59 W/m² 16,1 km/h (3 Bft) 97,87 %
14.02.2026 14:06 1,1 °C 1,1 °C -2,2 °C 87 % 1012,9 hPa 0,0 l/m² 0 min 0 min 55 W/m² 12,9 km/h (3 Bft) 98,31 %
14.02.2026 14:08 1,1 °C 1,1 °C -2,2 °C 87 % 1012,9 hPa 0,0 l/m² 0 min 0 min 56 W/m² 12,9 km/h (3 Bft) 100,00 %
14.02.2026 14:10 1,1 °C 1,1 °C -2,2 °C 87 % 1012,9 hPa 0,0 l/m² 0 min 0 min 58 W/m² 9,7 km/h (2 Bft) 97,92 %
14.02.2026 14:12 1,1 °C 1,1 °C -2,2 °C 87 % 1012,9 hPa 0,0 l/m² 0 min 0 min 62 W/m² 12,9 km/h (3 Bft) 100,00 %
14.02.2026 14:14 1,2 °C 1,1 °C -2,2 °C 87 % 1012,9 hPa 0,0 l/m² 0 min 0 min 55 W/m² 12,9 km/h (3 Bft) 95,65 %
14.02.2026 14:16 1,2 °C 1,1 °C -2,2 °C 87 % 1013,0 hPa 0,0 l/m² 0 min 0 min 57 W/m² 9,7 km/h (2 Bft) 97,87 %
14.02.2026 14:18 1,2 °C 1,1 °C -2,2 °C 87 % 1013,0 hPa 0,0 l/m² 0 min 0 min 63 W/m² 16,1 km/h (3 Bft) 97,87 %
14.02.2026 14:20 1,2 °C 1,1 °C -2,2 °C 87 % 1013,0 hPa 0,0 l/m² 0 min 0 min 69 W/m² 16,1 km/h (3 Bft) 95,74 %
14.02.2026 14:22 1,2 °C 1,1 °C -2,2 °C 87 % 1013,0 hPa 0,0 l/m² 0 min 0 min 67 W/m² 16,1 km/h (3 Bft) 93,62 %
14.02.2026 14:24 1,2 °C 1,1 °C -2,2 °C 87 % 1013,1 hPa 0,0 l/m² 0 min 0 min 62 W/m² 22,5 km/h (4 Bft) 95,74 %
14.02.2026 14:26 1,2 °C 1,1 °C -2,2 °C 87 % 1013,2 hPa 0,0 l/m² 0 min 0 min 59 W/m² 19,3 km/h (3 Bft) 95,74 %
14.02.2026 14:28 1,2 °C 1,1 °C -2,2 °C 87 % 1013,2 hPa 0,0 l/m² 0 min 0 min 58 W/m² 19,3 km/h (3 Bft) 95,74 %
14.02.2026 14:30 1,2 °C 1,1 °C -2,2 °C 87 % 1013,3 hPa 0,0 l/m² 0 min 0 min 55 W/m² 16,1 km/h (3 Bft) 95,74 %
14.02.2026 14:32 1,2 °C 1,1 °C -2,2 °C 87 % 1013,3 hPa 0,0 l/m² 0 min 0 min 61 W/m² 16,1 km/h (3 Bft) 91,49 %
14.02.2026 14:34 1,2 °C 1,1 °C -2,2 °C 87 % 1013,3 hPa 0,0 l/m² 0 min 0 min 68 W/m² 19,3 km/h (3 Bft) 95,74 %
14.02.2026 14:36 1,2 °C 1,1 °C -2,2 °C 87 % 1013,4 hPa 0,0 l/m² 0 min 0 min 70 W/m² 16,1 km/h (3 Bft) 95,74 %
14.02.2026 14:38 1,2 °C 1,1 °C -2,2 °C 87 % 1013,4 hPa 0,0 l/m² 0 min 0 min 65 W/m² 16,1 km/h (3 Bft) 95,65 %
14.02.2026 14:40 1,3 °C 1,1 °C -2,2 °C 87 % 1013,4 hPa 0,0 l/m² 0 min 0 min 57 W/m² 19,3 km/h (3 Bft) 93,62 %
14.02.2026 14:42 1,3 °C 1,1 °C -2,2 °C 87 % 1013,4 hPa 0,0 l/m² 0 min 0 min 58 W/m² 22,5 km/h (4 Bft) 89,36 %
14.02.2026 14:44 1,3 °C 1,1 °C -2,2 °C 87 % 1013,5 hPa 0,0 l/m² 0 min 0 min 59 W/m² 19,3 km/h (3 Bft) 95,74 %
14.02.2026 14:46 1,3 °C 1,1 °C -2,2 °C 87 % 1013,5 hPa 0,0 l/m² 0 min 0 min 54 W/m² 19,3 km/h (3 Bft) 97,87 %
14.02.2026 14:48 1,3 °C 1,1 °C -2,2 °C 87 % 1013,5 hPa 0,0 l/m² 0 min 0 min 46 W/m² 12,9 km/h (3 Bft) 95,74 %
14.02.2026 14:50 1,3 °C 1,1 °C -2,2 °C 87 % 1013,5 hPa 0,0 l/m² 0 min 0 min 38 W/m² 16,1 km/h (3 Bft) 91,49 %
14.02.2026 14:52 1,3 °C 1,1 °C -2,2 °C 87 % 1013,6 hPa 0,0 l/m² 0 min 0 min 30 W/m² 9,7 km/h (2 Bft) 55,32 %
14.02.2026 14:54 1,3 °C 1,1 °C -2,2 °C 87 % 1013,7 hPa 0,0 l/m² 0 min 0 min 29 W/m² 22,5 km/h (4 Bft) 95,74 %
14.02.2026 14:56 1,3 °C 1,1 °C -2,2 °C 87 % 1013,7 hPa 0,0 l/m² 0 min 0 min 33 W/m² 16,1 km/h (3 Bft) 95,74 %
14.02.2026 14:58 1,2 °C 1,1 °C -2,8 °C 87 % 1013,8 hPa 0,0 l/m² 0 min 0 min 38 W/m² 16,1 km/h (3 Bft) 93,48 %
14.02.2026 15:00 1,2 °C 1,1 °C -2,8 °C 87 % 1013,8 hPa 0,0 l/m² 0 min 0 min 40 W/m² 22,5 km/h (4 Bft) 93,62 %
14.02.2026 15:02 1,2 °C 1,1 °C -2,8 °C 87 % 1013,9 hPa 0,0 l/m² 0 min 0 min 34 W/m² 12,9 km/h (3 Bft) 95,74 %
14.02.2026 15:04 1,2 °C 1,1 °C -2,8 °C 87 % 1014,0 hPa 0,0 l/m² 0 min 0 min 33 W/m² 25,7 km/h (4 Bft) 95,74 %
14.02.2026 15:06 1,2 °C 1,1 °C -2,8 °C 86 % 1014,0 hPa 0,0 l/m² 0 min 0 min 35 W/m² 9,7 km/h (2 Bft) 96,67 %
14.02.2026 15:08 1,2 °C 1,1 °C -2,8 °C 87 % 1014,1 hPa 0,0 l/m² 0 min 0 min 34 W/m² 6,4 km/h (2 Bft) 97,22 %
14.02.2026 15:10 1,2 °C 1,1 °C -2,8 °C 87 % 1014,1 hPa 0,0 l/m² 0 min 0 min 32 W/m² 19,3 km/h (3 Bft) 97,87 %
14.02.2026 15:12 1,2 °C 1,1 °C -2,8 °C 87 % 1014,1 hPa 0,0 l/m² 0 min 0 min 35 W/m² 12,9 km/h (3 Bft) 97,87 %
14.02.2026 15:14 1,1 °C 1,1 °C -2,8 °C 87 % 1014,2 hPa 0,0 l/m² 0 min 0 min 39 W/m² 9,7 km/h (2 Bft) 93,62 %
14.02.2026 15:16 1,1 °C 0,6 °C -2,8 °C 86 % 1014,3 hPa 0,0 l/m² 0 min 0 min 37 W/m² 12,9 km/h (3 Bft) 95,74 %
14.02.2026 15:18 1,1 °C 0,6 °C -2,8 °C 86 % 1014,3 hPa 0,0 l/m² 0 min 0 min 35 W/m² 12,9 km/h (3 Bft) 97,87 %
14.02.2026 15:20 1,1 °C 0,6 °C -2,8 °C 86 % 1014,3 hPa 0,0 l/m² 0 min 0 min 37 W/m² 16,1 km/h (3 Bft) 97,83 %
14.02.2026 15:22 1,1 °C 0,6 °C -2,8 °C 86 % 1014,4 hPa 0,0 l/m² 0 min 0 min 35 W/m² 19,3 km/h (3 Bft) 97,87 %
14.02.2026 15:24 1,1 °C 1,1 °C -2,8 °C 86 % 1014,4 hPa 0,0 l/m² 0 min 0 min 31 W/m² 9,7 km/h (2 Bft) 97,87 %
14.02.2026 15:26 1,1 °C 1,1 °C -2,8 °C 86 % 1014,5 hPa 0,0 l/m² 0 min 0 min 34 W/m² 9,7 km/h (2 Bft) 97,87 %
14.02.2026 15:28 1,1 °C 1,1 °C -2,8 °C 86 % 1014,5 hPa 0,0 l/m² 0 min 0 min 33 W/m² 12,9 km/h (3 Bft) 97,87 %
14.02.2026 15:30 1,1 °C 1,1 °C -2,8 °C 86 % 1014,6 hPa 0,0 l/m² 0 min 0 min 31 W/m² 12,9 km/h (3 Bft) 97,87 %
14.02.2026 15:32 1,1 °C 1,1 °C -2,8 °C 86 % 1014,6 hPa 0,0 l/m² 0 min 0 min 33 W/m² 12,9 km/h (3 Bft) 97,87 %
14.02.2026 15:34 1,1 °C 1,1 °C -2,8 °C 86 % 1014,7 hPa 0,0 l/m² 0 min 0 min 33 W/m² 32,2 km/h (5 Bft) 100,00 %
14.02.2026 15:36 1,1 °C 1,1 °C -2,8 °C 86 % 1014,7 hPa 0,0 l/m² 0 min 0 min 33 W/m² 12,9 km/h (3 Bft) 100,00 %
14.02.2026 15:38 1,1 °C 1,1 °C -2,8 °C 86 % 1014,7 hPa 0,0 l/m² 0 min 0 min 35 W/m² 22,5 km/h (4 Bft) 100,00 %
14.02.2026 15:40 1,1 °C 1,1 °C -2,8 °C 86 % 1014,8 hPa 0,0 l/m² 0 min 0 min 35 W/m² 22,5 km/h (4 Bft) 97,87 %
14.02.2026 15:42 1,1 °C 1,1 °C -2,8 °C 86 % 1014,9 hPa 0,0 l/m² 0 min 0 min 34 W/m² 16,1 km/h (3 Bft) 100,00 %
14.02.2026 15:44 1,1 °C 1,1 °C -2,8 °C 86 % 1014,9 hPa 0,0 l/m² 0 min 0 min 39 W/m² 22,5 km/h (4 Bft) 100,00 %
14.02.2026 15:46 1,1 °C 1,1 °C -2,8 °C 86 % 1015,0 hPa 0,0 l/m² 0 min 0 min 41 W/m² 16,1 km/h (3 Bft) 97,87 %
14.02.2026 15:48 1,1 °C 1,1 °C -2,8 °C 86 % 1015,0 hPa 0,0 l/m² 0 min 0 min 38 W/m² 12,9 km/h (3 Bft) 97,87 %
14.02.2026 15:50 1,1 °C 1,1 °C -2,8 °C 86 % 1015,0 hPa 0,0 l/m² 0 min 0 min 35 W/m² 9,7 km/h (2 Bft) 97,87 %
14.02.2026 15:52 1,1 °C 1,1 °C -2,2 °C 86 % 1015,1 hPa 0,0 l/m² 0 min 0 min 36 W/m² 9,7 km/h (2 Bft) 100,00 %
14.02.2026 15:54 1,1 °C 1,1 °C -2,2 °C 86 % 1015,1 hPa 0,0 l/m² 0 min 0 min 34 W/m² 16,1 km/h (3 Bft) 100,00 %
14.02.2026 15:56 1,1 °C 1,1 °C -2,8 °C 86 % 1015,2 hPa 0,0 l/m² 0 min 0 min 33 W/m² 6,4 km/h (2 Bft) 100,00 %
14.02.2026 15:58 1,1 °C 1,1 °C -2,8 °C 86 % 1015,2 hPa 0,0 l/m² 0 min 0 min 34 W/m² 6,4 km/h (2 Bft) 100,00 %
14.02.2026 16:00 1,1 °C 1,1 °C -2,2 °C 86 % 1015,2 hPa 0,0 l/m² 0 min 0 min 33 W/m² 6,4 km/h (2 Bft) 100,00 %
14.02.2026 16:02 1,1 °C 1,1 °C -2,2 °C 86 % 1015,3 hPa 0,0 l/m² 0 min 0 min 33 W/m² 9,7 km/h (2 Bft) 100,00 %
14.02.2026 16:04 1,1 °C 1,1 °C -2,2 °C 86 % 1015,4 hPa 0,0 l/m² 0 min 0 min 32 W/m² 6,4 km/h (2 Bft) 95,74 %
14.02.2026 16:06 1,1 °C 1,1 °C -2,8 °C 86 % 1015,4 hPa 0,0 l/m² 0 min 0 min 30 W/m² 12,9 km/h (3 Bft) 97,87 %
14.02.2026 16:08 1,1 °C 1,1 °C -2,8 °C 85 % 1015,4 hPa 0,0 l/m² 0 min 0 min 30 W/m² 12,9 km/h (3 Bft) 97,92 %
14.02.2026 16:10 1,1 °C 1,1 °C -2,8 °C 85 % 1015,5 hPa 0,0 l/m² 0 min 0 min 27 W/m² 19,3 km/h (3 Bft) 95,65 %
14.02.2026 16:12 1,2 °C 1,1 °C -2,8 °C 85 % 1015,4 hPa 0,0 l/m² 0 min 0 min 26 W/m² 9,7 km/h (2 Bft) 93,62 %
14.02.2026 16:14 1,1 °C 1,1 °C -2,8 °C 85 % 1015,5 hPa 0,0 l/m² 0 min 0 min 25 W/m² 3,2 km/h (1 Bft) 97,87 %
14.02.2026 16:16 1,2 °C 1,1 °C -2,8 °C 85 % 1015,4 hPa 0,0 l/m² 0 min 0 min 25 W/m² 12,9 km/h (3 Bft) 97,87 %
14.02.2026 16:18 1,1 °C 1,1 °C -2,8 °C 85 % 1015,4 hPa 0,0 l/m² 0 min 0 min 24 W/m² 6,4 km/h (2 Bft) 97,87 %
14.02.2026 16:20 1,1 °C 1,1 °C -2,8 °C 85 % 1015,4 hPa 0,0 l/m² 0 min 0 min 21 W/m² 9,7 km/h (2 Bft) 97,87 %
14.02.2026 16:22 1,2 °C 1,1 °C -2,8 °C 85 % 1015,5 hPa 0,0 l/m² 0 min 0 min 19 W/m² 6,4 km/h (2 Bft) 97,87 %
14.02.2026 16:24 1,2 °C 1,1 °C -2,8 °C 85 % 1015,6 hPa 0,0 l/m² 0 min 0 min 19 W/m² 3,2 km/h (1 Bft) 97,87 %
14.02.2026 16:26 1,2 °C 1,1 °C -2,8 °C 85 % 1015,6 hPa 0,0 l/m² 0 min 0 min 18 W/m² 6,4 km/h (2 Bft) 97,87 %
14.02.2026 16:28 1,2 °C 1,1 °C -2,8 °C 85 % 1015,6 hPa 0,0 l/m² 0 min 0 min 16 W/m² 9,7 km/h (2 Bft) 44,74 %
14.02.2026 16:30 1,2 °C 1,1 °C -2,8 °C 85 % 1015,7 hPa 0,0 l/m² 0 min 0 min 16 W/m² 19,3 km/h (3 Bft) 97,87 %
14.02.2026 16:32 1,2 °C 0,6 °C -2,8 °C 85 % 1015,7 hPa 0,0 l/m² 0 min 0 min 14 W/m² 9,7 km/h (2 Bft) 97,83 %
14.02.2026 16:34 1,2 °C 0,6 °C -2,8 °C 85 % 1015,7 hPa 0,0 l/m² 0 min 0 min 14 W/m² 19,3 km/h (3 Bft) 97,87 %
14.02.2026 16:36 1,1 °C 0,6 °C -2,8 °C 85 % 1015,8 hPa 0,0 l/m² 0 min 0 min 14 W/m² 12,9 km/h (3 Bft) 100,00 %
14.02.2026 16:38 1,1 °C 0,6 °C -2,8 °C 85 % 1015,8 hPa 0,0 l/m² 0 min 0 min 14 W/m² 12,9 km/h (3 Bft) 97,87 %
14.02.2026 16:40 1,1 °C 0,6 °C -2,8 °C 85 % 1015,8 hPa 0,0 l/m² 0 min 0 min 14 W/m² 16,1 km/h (3 Bft) 100,00 %
14.02.2026 16:42 1,1 °C 0,6 °C -2,8 °C 85 % 1015,8 hPa 0,0 l/m² 0 min 0 min 14 W/m² 6,4 km/h (2 Bft) 97,87 %
14.02.2026 16:44 1,1 °C 0,6 °C -2,8 °C 85 % 1015,9 hPa 0,0 l/m² 0 min 0 min 14 W/m² 9,7 km/h (2 Bft) 100,00 %
14.02.2026 16:46 1,1 °C 0,6 °C -2,8 °C 85 % 1015,9 hPa 0,0 l/m² 0 min 0 min 17 W/m² 9,7 km/h (2 Bft) 97,87 %
14.02.2026 16:48 1,1 °C 0,6 °C -2,8 °C 85 % 1015,9 hPa 0,0 l/m² 0 min 0 min 16 W/m² 16,1 km/h (3 Bft) 97,14 %
14.02.2026 16:50 1,1 °C 0,6 °C -2,8 °C 85 % 1015,9 hPa 0,0 l/m² 0 min 0 min 16 W/m² 12,9 km/h (3 Bft) 98,00 %
14.02.2026 16:52 1,1 °C 0,6 °C -2,8 °C 85 % 1015,9 hPa 0,0 l/m² 0 min 0 min 16 W/m² 12,9 km/h (3 Bft) 97,87 %
14.02.2026 16:54 1,1 °C 0,6 °C -2,8 °C 85 % 1016,0 hPa 0,0 l/m² 0 min 0 min 15 W/m² 22,5 km/h (4 Bft) 100,00 %
14.02.2026 16:56 1,0 °C 0,6 °C -2,8 °C 85 % 1016,0 hPa 0,0 l/m² 0 min 0 min 13 W/m² 19,3 km/h (3 Bft) 100,00 %
14.02.2026 16:58 1,0 °C 0,6 °C -2,8 °C 84 % 1016,0 hPa 0,0 l/m² 0 min 0 min 12 W/m² 19,3 km/h (3 Bft) 97,87 %
14.02.2026 17:00 1,0 °C 0,6 °C -2,8 °C 84 % 1016,0 hPa 0,0 l/m² 0 min 0 min 12 W/m² 12,9 km/h (3 Bft) 97,87 %
14.02.2026 17:02 0,9 °C 0,6 °C -2,8 °C 84 % 1016,0 hPa 0,0 l/m² 0 min 0 min 12 W/m² 12,9 km/h (3 Bft) 97,83 %
14.02.2026 17:04 0,9 °C 0,6 °C -2,8 °C 84 % 1016,0 hPa 0,0 l/m² 0 min 0 min 12 W/m² 12,9 km/h (3 Bft) 97,92 %
14.02.2026 17:06 0,9 °C 0,6 °C -2,8 °C 84 % 1016,0 hPa 0,0 l/m² 0 min 0 min 11 W/m² 22,5 km/h (4 Bft) 97,87 %
14.02.2026 17:08 0,9 °C 0,6 °C -2,8 °C 84 % 1016,1 hPa 0,0 l/m² 0 min 0 min 9 W/m² 9,7 km/h (2 Bft) 97,87 %
14.02.2026 17:10 0,9 °C 0,6 °C -2,8 °C 84 % 1016,1 hPa 0,0 l/m² 0 min 0 min 9 W/m² 19,3 km/h (3 Bft) 97,87 %
14.02.2026 17:12 0,9 °C 0,6 °C -3,3 °C 84 % 1016,1 hPa 0,0 l/m² 0 min 0 min 8 W/m² 19,3 km/h (3 Bft) 97,87 %
14.02.2026 17:14 0,8 °C 0,6 °C -3,3 °C 84 % 1016,2 hPa 0,0 l/m² 0 min 0 min 7 W/m² 16,1 km/h (3 Bft) 95,74 %
14.02.2026 17:16 0,8 °C 0,6 °C -3,3 °C 84 % 1016,2 hPa 0,0 l/m² 0 min 0 min 7 W/m² 6,4 km/h (2 Bft) 97,87 %
14.02.2026 17:18 0,8 °C 0,6 °C -2,8 °C 84 % 1016,3 hPa 0,0 l/m² 0 min 0 min 5 W/m² 9,7 km/h (2 Bft) 97,87 %
14.02.2026 17:20 0,8 °C 0,6 °C -2,8 °C 84 % 1016,3 hPa 0,0 l/m² 0 min 0 min 5 W/m² 12,9 km/h (3 Bft) 97,87 %
14.02.2026 17:22 0,8 °C 0,6 °C -2,8 °C 84 % 1016,3 hPa 0,0 l/m² 0 min 0 min 5 W/m² 16,1 km/h (3 Bft) 97,83 %
14.02.2026 17:24 0,8 °C 0,6 °C -2,8 °C 84 % 1016,3 hPa 0,0 l/m² 0 min 0 min 5 W/m² 9,7 km/h (2 Bft) 95,74 %
14.02.2026 17:26 0,8 °C 0,6 °C -2,8 °C 84 % 1016,3 hPa 0,0 l/m² 0 min 0 min 5 W/m² 9,7 km/h (2 Bft) 97,87 %
14.02.2026 17:28 0,7 °C 0,6 °C -2,8 °C 84 % 1016,3 hPa 0,0 l/m² 0 min 0 min 5 W/m² 6,4 km/h (2 Bft) 96,00 %
14.02.2026 17:30 0,7 °C 0,6 °C -2,8 °C 84 % 1016,3 hPa 0,0 l/m² 0 min 0 min 2 W/m² 6,4 km/h (2 Bft) 97,87 %
14.02.2026 17:32 0,8 °C 0,6 °C -2,8 °C 84 % 1016,4 hPa 0,0 l/m² 0 min 0 min 0 W/m² 9,7 km/h (2 Bft) 97,87 %
14.02.2026 17:34 0,7 °C 0,0 °C -2,8 °C 84 % 1016,4 hPa 0,0 l/m² 0 min 0 min 0 W/m² 6,4 km/h (2 Bft) 97,87 %
14.02.2026 17:36 0,7 °C 0,0 °C -2,8 °C 84 % 1016,4 hPa 0,0 l/m² 0 min 0 min 0 W/m² 12,9 km/h (3 Bft) 97,87 %
14.02.2026 17:38 0,7 °C 0,0 °C -3,3 °C 84 % 1016,4 hPa 0,0 l/m² 0 min 0 min 0 W/m² 16,1 km/h (3 Bft) 97,87 %
14.02.2026 17:40 0,7 °C 0,0 °C -3,3 °C 84 % 1016,4 hPa 0,0 l/m² 0 min 0 min 0 W/m² 6,4 km/h (2 Bft) 97,87 %
14.02.2026 17:42 0,7 °C 0,0 °C -3,3 °C 84 % 1016,4 hPa 0,0 l/m² 0 min 0 min 0 W/m² 12,9 km/h (3 Bft) 100,00 %
14.02.2026 17:44 0,7 °C 0,0 °C -3,3 °C 84 % 1016,4 hPa 0,0 l/m² 0 min 0 min 0 W/m² 12,9 km/h (3 Bft) 97,87 %
14.02.2026 17:46 0,6 °C 0,0 °C -3,3 °C 84 % 1016,4 hPa 0,0 l/m² 0 min 0 min 0 W/m² 12,9 km/h (3 Bft) 100,00 %
14.02.2026 17:48 0,6 °C 0,0 °C -3,3 °C 84 % 1016,4 hPa 0,0 l/m² 0 min 0 min 0 W/m² 12,9 km/h (3 Bft) 95,74 %
14.02.2026 17:50 0,6 °C 0,0 °C -3,3 °C 85 % 1016,4 hPa 0,0 l/m² 0 min 0 min 0 W/m² 9,7 km/h (2 Bft) 95,74 %
14.02.2026 17:52 0,6 °C 0,0 °C -3,3 °C 85 % 1016,5 hPa 0,0 l/m² 0 min 0 min 0 W/m² 9,7 km/h (2 Bft) 95,74 %
14.02.2026 17:54 0,6 °C 0,0 °C -3,3 °C 85 % 1016,5 hPa 0,0 l/m² 0 min 0 min 0 W/m² 12,9 km/h (3 Bft) 95,74 %
14.02.2026 17:56 0,6 °C 0,0 °C -3,3 °C 85 % 1016,6 hPa 0,0 l/m² 0 min 0 min 0 W/m² 16,1 km/h (3 Bft) 95,74 %
14.02.2026 17:58 0,6 °C 0,0 °C -3,3 °C 85 % 1016,5 hPa 0,0 l/m² 0 min 0 min 0 W/m² 16,1 km/h (3 Bft) 94,29 %
14.02.2026 18:00 0,6 °C 0,0 °C -3,3 °C 85 % 1016,6 hPa 0,0 l/m² 0 min 0 min 0 W/m² 19,3 km/h (3 Bft) 95,74 %
14.02.2026 18:02 0,6 °C 0,0 °C -3,3 °C 84 % 1016,6 hPa 0,0 l/m² 0 min 0 min 0 W/m² 9,7 km/h (2 Bft) 35,48 %
14.02.2026 18:04 0,5 °C 0,0 °C -3,3 °C 84 % 1016,6 hPa 0,0 l/m² 0 min 0 min 0 W/m² 9,7 km/h (2 Bft) 93,48 %
14.02.2026 18:07 0,5 °C 0,0 °C -3,3 °C 85 % 1016,7 hPa 0,0 l/m² 0 min 0 min 0 W/m² 9,7 km/h (2 Bft) 93,90 %
14.02.2026 18:08 0,5 °C 0,0 °C -3,3 °C 85 % 1016,7 hPa 0,0 l/m² 0 min 0 min 0 W/m² 12,9 km/h (3 Bft) 100,00 %
14.02.2026 18:12 0,4 °C 0,0 °C -3,3 °C 85 % 1016,8 hPa 0,0 l/m² 0 min 0 min 0 W/m² 3,2 km/h (1 Bft) 94,55 %
14.02.2026 18:14 0,4 °C 0,0 °C -3,3 °C 85 % 1016,8 hPa 0,0 l/m² 0 min 0 min 0 W/m² 12,9 km/h (3 Bft) 95,74 %
14.02.2026 18:16 0,4 °C 0,0 °C -3,3 °C 85 % 1016,9 hPa 0,0 l/m² 0 min 0 min 0 W/m² 12,9 km/h (3 Bft) 93,48 %
14.02.2026 18:18 0,4 °C 0,0 °C -3,3 °C 85 % 1016,9 hPa 0,0 l/m² 0 min 0 min 0 W/m² 12,9 km/h (3 Bft) 93,62 %
14.02.2026 18:20 0,4 °C -0,6 °C -3,3 °C 85 % 1016,9 hPa 0,0 l/m² 0 min 0 min 0 W/m² 12,9 km/h (3 Bft) 97,87 %
14.02.2026 18:22 0,3 °C -0,6 °C -3,3 °C 85 % 1017,0 hPa 0,0 l/m² 0 min 0 min 0 W/m² 12,9 km/h (3 Bft) 97,87 %
14.02.2026 18:24 0,3 °C 0,0 °C -3,9 °C 85 % 1017,0 hPa 0,0 l/m² 0 min 0 min 0 W/m² 16,1 km/h (3 Bft) 97,87 %
14.02.2026 18:26 0,3 °C 0,0 °C -3,3 °C 85 % 1017,0 hPa 0,0 l/m² 0 min 0 min 0 W/m² 9,7 km/h (2 Bft) 93,62 %
14.02.2026 18:28 0,3 °C 0,0 °C -3,9 °C 85 % 1017,1 hPa 0,0 l/m² 0 min 0 min 0 W/m² 16,1 km/h (3 Bft) 95,74 %
14.02.2026 18:30 0,3 °C 0,0 °C -3,9 °C 85 % 1017,1 hPa 0,0 l/m² 0 min 0 min 0 W/m² 9,7 km/h (2 Bft) 97,87 %
14.02.2026 18:32 0,3 °C 0,0 °C -3,3 °C 85 % 1017,0 hPa 0,0 l/m² 0 min 0 min 0 W/m² 9,7 km/h (2 Bft) 97,87 %
14.02.2026 18:34 0,3 °C 0,0 °C -3,3 °C 85 % 1017,1 hPa 0,0 l/m² 0 min 0 min 0 W/m² 6,4 km/h (2 Bft) 97,87 %
14.02.2026 18:36 0,3 °C 0,0 °C -3,3 °C 85 % 1017,1 hPa 0,0 l/m² 0 min 0 min 0 W/m² 6,4 km/h (2 Bft) 95,74 %
14.02.2026 18:38 0,3 °C 0,0 °C -3,3 °C 85 % 1017,1 hPa 0,0 l/m² 0 min 0 min 0 W/m² 16,1 km/h (3 Bft) 95,74 %
14.02.2026 18:40 0,3 °C 0,0 °C -3,3 °C 85 % 1017,2 hPa 0,0 l/m² 0 min 0 min 0 W/m² 12,9 km/h (3 Bft) 97,87 %
14.02.2026 18:42 0,3 °C 0,0 °C -3,3 °C 86 % 1017,3 hPa 0,0 l/m² 0 min 0 min 0 W/m² 19,3 km/h (3 Bft) 95,65 %
14.02.2026 18:44 0,3 °C 0,0 °C -3,3 °C 86 % 1017,2 hPa 0,0 l/m² 0 min 0 min 0 W/m² 9,7 km/h (2 Bft) 100,00 %
14.02.2026 18:46 0,3 °C 0,0 °C -3,9 °C 86 % 1017,2 hPa 0,0 l/m² 0 min 0 min 0 W/m² 22,5 km/h (4 Bft) 100,00 %
14.02.2026 18:48 0,3 °C 0,0 °C -3,9 °C 86 % 1017,4 hPa 0,0 l/m² 0 min 0 min 0 W/m² 6,4 km/h (2 Bft) 97,87 %
14.02.2026 18:50 0,3 °C 0,0 °C -3,9 °C 86 % 1017,5 hPa 0,0 l/m² 0 min 0 min 0 W/m² 19,3 km/h (3 Bft) 100,00 %
14.02.2026 18:52 0,2 °C -0,6 °C -3,9 °C 86 % 1017,5 hPa 0,0 l/m² 0 min 0 min 0 W/m² 22,5 km/h (4 Bft) 100,00 %
14.02.2026 18:54 0,2 °C 0,0 °C -3,9 °C 85 % 1017,6 hPa 0,0 l/m² 0 min 0 min 0 W/m² 12,9 km/h (3 Bft) 100,00 %
14.02.2026 18:56 0,2 °C -0,6 °C -3,9 °C 85 % 1017,7 hPa 0,0 l/m² 0 min 0 min 0 W/m² 19,3 km/h (3 Bft) 100,00 %
14.02.2026 18:58 0,2 °C -0,6 °C -3,9 °C 85 % 1017,7 hPa 0,0 l/m² 0 min 0 min 0 W/m² 16,1 km/h (3 Bft) 97,14 %
14.02.2026 19:00 0,2 °C -0,6 °C -3,9 °C 85 % 1017,8 hPa 0,0 l/m² 0 min 0 min 0 W/m² 16,1 km/h (3 Bft) 97,87 %
14.02.2026 19:02 0,2 °C -0,6 °C -3,9 °C 85 % 1017,8 hPa 0,0 l/m² 0 min 0 min 0 W/m² 19,3 km/h (3 Bft) 100,00 %
14.02.2026 19:04 0,2 °C -0,6 °C -3,9 °C 85 % 1017,8 hPa 0,0 l/m² 0 min 0 min 0 W/m² 9,7 km/h (2 Bft) 100,00 %
14.02.2026 19:06 0,2 °C -0,6 °C -3,3 °C 85 % 1017,8 hPa 0,0 l/m² 0 min 0 min 0 W/m² 16,1 km/h (3 Bft) 100,00 %
14.02.2026 19:08 0,2 °C -0,6 °C -3,9 °C 85 % 1017,8 hPa 0,0 l/m² 0 min 0 min 0 W/m² 9,7 km/h (2 Bft) 100,00 %
14.02.2026 19:10 0,1 °C -0,6 °C -3,9 °C 85 % 1017,8 hPa 0,0 l/m² 0 min 0 min 0 W/m² 16,1 km/h (3 Bft) 100,00 %
14.02.2026 19:12 0,1 °C -0,6 °C -3,9 °C 85 % 1017,8 hPa 0,0 l/m² 0 min 0 min 0 W/m² 12,9 km/h (3 Bft) 97,83 %
14.02.2026 19:14 0,1 °C -0,6 °C -3,9 °C 85 % 1017,8 hPa 0,0 l/m² 0 min 0 min 0 W/m² 19,3 km/h (3 Bft) 100,00 %
14.02.2026 19:16 0,1 °C -0,6 °C -3,9 °C 85 % 1018,0 hPa 0,0 l/m² 0 min 0 min 0 W/m² 12,9 km/h (3 Bft) 100,00 %
14.02.2026 19:18 0,1 °C -0,6 °C -3,9 °C 85 % 1018,0 hPa 0,0 l/m² 0 min 0 min 0 W/m² 9,7 km/h (2 Bft) 97,87 %
14.02.2026 19:20 0,1 °C -0,6 °C -3,9 °C 85 % 1018,1 hPa 0,0 l/m² 0 min 0 min 0 W/m² 12,9 km/h (3 Bft) 100,00 %
14.02.2026 19:22 0,1 °C -0,6 °C -3,9 °C 85 % 1018,1 hPa 0,0 l/m² 0 min 0 min 0 W/m² 16,1 km/h (3 Bft) 100,00 %
14.02.2026 19:24 0,1 °C -0,6 °C -3,9 °C 85 % 1018,2 hPa 0,0 l/m² 0 min 0 min 0 W/m² 12,9 km/h (3 Bft) 97,87 %
14.02.2026 19:26 0,1 °C -0,6 °C -3,9 °C 85 % 1018,2 hPa 0,0 l/m² 0 min 0 min 0 W/m² 12,9 km/h (3 Bft) 97,83 %
14.02.2026 19:28 0,1 °C -0,6 °C -3,9 °C 85 % 1018,3 hPa 0,0 l/m² 0 min 0 min 0 W/m² 12,9 km/h (3 Bft) 95,74 %
14.02.2026 19:30 0,1 °C -0,6 °C -3,9 °C 85 % 1018,3 hPa 0,0 l/m² 0 min 0 min 0 W/m² 16,1 km/h (3 Bft) 54,55 %
14.02.2026 19:32 0,1 °C -0,6 °C -3,9 °C 85 % 1018,4 hPa 0,0 l/m² 0 min 0 min 0 W/m² 12,9 km/h (3 Bft) 95,74 %
14.02.2026 19:34 0,1 °C -0,6 °C -3,9 °C 85 % 1018,5 hPa 0,0 l/m² 0 min 0 min 0 W/m² 16,1 km/h (3 Bft) 93,62 %
14.02.2026 19:36 0,1 °C -0,6 °C -3,9 °C 85 % 1018,5 hPa 0,0 l/m² 0 min 0 min 0 W/m² 9,7 km/h (2 Bft) 97,87 %
14.02.2026 19:38 0,1 °C -0,6 °C -3,9 °C 85 % 1018,5 hPa 0,0 l/m² 0 min 0 min 0 W/m² 19,3 km/h (3 Bft) 93,62 %
14.02.2026 19:40 0,0 °C -0,6 °C -3,9 °C 85 % 1018,7 hPa 0,0 l/m² 0 min 0 min 0 W/m² 16,1 km/h (3 Bft) 93,62 %
14.02.2026 19:42 0,0 °C -0,6 °C -3,9 °C 85 % 1018,7 hPa 0,0 l/m² 0 min 0 min 0 W/m² 9,7 km/h (2 Bft) 93,62 %
14.02.2026 19:44 0,0 °C -0,6 °C -3,9 °C 85 % 1018,8 hPa 0,0 l/m² 0 min 0 min 0 W/m² 19,3 km/h (3 Bft) 95,74 %
14.02.2026 19:46 0,0 °C -0,6 °C -3,9 °C 84 % 1018,8 hPa 0,0 l/m² 0 min 0 min 0 W/m² 9,7 km/h (2 Bft) 94,34 %
14.02.2026 19:48 0,0 °C -0,6 °C -3,9 °C 84 % 1018,8 hPa 0,0 l/m² 0 min 0 min 0 W/m² 9,7 km/h (2 Bft) 95,74 %
14.02.2026 19:50 0,0 °C -0,6 °C -3,9 °C 84 % 1018,7 hPa 0,0 l/m² 0 min 0 min 0 W/m² 12,9 km/h (3 Bft) 93,62 %
14.02.2026 19:52 0,0 °C -0,6 °C -3,9 °C 84 % 1018,8 hPa 0,0 l/m² 0 min 0 min 0 W/m² 9,7 km/h (2 Bft) 95,65 %
14.02.2026 19:54 0,0 °C -0,6 °C -3,9 °C 84 % 1018,9 hPa 0,0 l/m² 0 min 0 min 0 W/m² 9,7 km/h (2 Bft) 95,74 %
14.02.2026 19:56 0,0 °C -0,6 °C -3,9 °C 84 % 1018,9 hPa 0,0 l/m² 0 min 0 min 0 W/m² 12,9 km/h (3 Bft) 95,74 %
14.02.2026 19:58 -0,1 °C -0,6 °C -3,9 °C 84 % 1018,9 hPa 0,0 l/m² 0 min 0 min 0 W/m² 16,1 km/h (3 Bft) 95,74 %
14.02.2026 20:00 -0,1 °C -0,6 °C -3,9 °C 84 % 1019,0 hPa 0,0 l/m² 0 min 0 min 0 W/m² 9,7 km/h (2 Bft) 95,74 %
14.02.2026 20:02 -0,1 °C -0,6 °C -3,9 °C 84 % 1019,0 hPa 0,0 l/m² 0 min 0 min 0 W/m² 9,7 km/h (2 Bft) 94,29 %
14.02.2026 20:04 -0,1 °C -0,6 °C -3,9 °C 84 % 1019,1 hPa 0,0 l/m² 0 min 0 min 0 W/m² 16,1 km/h (3 Bft) 95,92 %
14.02.2026 20:06 -0,1 °C -0,6 °C -3,9 °C 84 % 1019,1 hPa 0,0 l/m² 0 min 0 min 0 W/m² 12,9 km/h (3 Bft) 96,61 %
14.02.2026 20:08 -0,1 °C -0,6 °C -3,9 °C 84 % 1019,0 hPa 0,0 l/m² 0 min 0 min 0 W/m² 9,7 km/h (2 Bft) 97,22 %
14.02.2026 20:10 -0,1 °C -0,6 °C -3,9 °C 84 % 1019,0 hPa 0,0 l/m² 0 min 0 min 0 W/m² 9,7 km/h (2 Bft) 97,87 %
14.02.2026 20:12 -0,1 °C -0,6 °C -3,9 °C 84 % 1019,0 hPa 0,0 l/m² 0 min 0 min 0 W/m² 9,7 km/h (2 Bft) 97,87 %
14.02.2026 20:14 -0,1 °C -0,6 °C -3,9 °C 84 % 1019,0 hPa 0,0 l/m² 0 min 0 min 0 W/m² 9,7 km/h (2 Bft) 100,00 %
14.02.2026 20:16 -0,1 °C -0,6 °C -3,9 °C 84 % 1018,9 hPa 0,0 l/m² 0 min 0 min 0 W/m² 6,4 km/h (2 Bft) 100,00 %
14.02.2026 20:18 -0,1 °C -0,6 °C -3,9 °C 84 % 1018,9 hPa 0,0 l/m² 0 min 0 min 0 W/m² 6,4 km/h (2 Bft) 95,65 %
14.02.2026 20:20 -0,2 °C -0,6 °C -3,9 °C 84 % 1019,0 hPa 0,0 l/m² 0 min 0 min 0 W/m² 6,4 km/h (2 Bft) 97,87 %
14.02.2026 20:22 -0,1 °C -0,6 °C -3,9 °C 84 % 1019,0 hPa 0,0 l/m² 0 min 0 min 0 W/m² 9,7 km/h (2 Bft) 100,00 %
14.02.2026 20:24 -0,2 °C -0,6 °C -3,9 °C 84 % 1019,0 hPa 0,0 l/m² 0 min 0 min 0 W/m² 9,7 km/h (2 Bft) 100,00 %
14.02.2026 20:26 -0,1 °C -0,6 °C -3,9 °C 84 % 1019,1 hPa 0,0 l/m² 0 min 0 min 0 W/m² 19,3 km/h (3 Bft) 100,00 %
14.02.2026 20:28 -0,2 °C -0,6 °C -3,9 °C 83 % 1019,0 hPa 0,0 l/m² 0 min 0 min 0 W/m² 12,9 km/h (3 Bft) 100,00 %
14.02.2026 20:30 -0,2 °C -0,6 °C -3,9 °C 83 % 1019,0 hPa 0,0 l/m² 0 min 0 min 0 W/m² 12,9 km/h (3 Bft) 100,00 %
14.02.2026 20:32 -0,2 °C -0,6 °C -3,9 °C 83 % 1019,0 hPa 0,0 l/m² 0 min 0 min 0 W/m² 9,7 km/h (2 Bft) 100,00 %
14.02.2026 20:34 -0,2 °C -0,6 °C -3,9 °C 83 % 1019,0 hPa 0,0 l/m² 0 min 0 min 0 W/m² 6,4 km/h (2 Bft) 97,87 %
14.02.2026 20:36 -0,2 °C -0,6 °C -3,9 °C 83 % 1019,0 hPa 0,0 l/m² 0 min 0 min 0 W/m² 6,4 km/h (2 Bft) 100,00 %
14.02.2026 20:38 -0,2 °C -1,1 °C -3,9 °C 83 % 1019,0 hPa 0,0 l/m² 0 min 0 min 0 W/m² 9,7 km/h (2 Bft) 100,00 %
14.02.2026 20:40 -0,2 °C -1,1 °C -3,9 °C 83 % 1019,0 hPa 0,0 l/m² 0 min 0 min 0 W/m² 6,4 km/h (2 Bft) 97,83 %
14.02.2026 20:42 -0,2 °C -1,1 °C -4,4 °C 83 % 1019,0 hPa 0,0 l/m² 0 min 0 min 0 W/m² 6,4 km/h (2 Bft) 100,00 %
14.02.2026 20:44 -0,3 °C -1,1 °C -3,9 °C 83 % 1019,0 hPa 0,0 l/m² 0 min 0 min 0 W/m² 9,7 km/h (2 Bft) 100,00 %
14.02.2026 20:46 -0,3 °C -1,1 °C -3,9 °C 83 % 1019,0 hPa 0,0 l/m² 0 min 0 min 0 W/m² 3,2 km/h (1 Bft) 100,00 %
14.02.2026 20:48 -0,3 °C -1,1 °C -3,9 °C 83 % 1019,0 hPa 0,0 l/m² 0 min 0 min 0 W/m² 6,4 km/h (2 Bft) 100,00 %
14.02.2026 20:50 -0,3 °C -1,1 °C -4,4 °C 83 % 1019,0 hPa 0,0 l/m² 0 min 0 min 0 W/m² 3,2 km/h (1 Bft) 100,00 %
14.02.2026 20:52 -0,3 °C -1,1 °C -4,4 °C 83 % 1019,0 hPa 0,0 l/m² 0 min 0 min 0 W/m² 0,0 km/h (0 Bft) 100,00 %
14.02.2026 20:54 -0,3 °C -1,1 °C -4,4 °C 83 % 1018,9 hPa 0,0 l/m² 0 min 0 min 0 W/m² 6,4 km/h (2 Bft) 100,00 %
14.02.2026 20:56 -0,3 °C -1,1 °C -4,4 °C 83 % 1018,9 hPa 0,0 l/m² 0 min 0 min 0 W/m² 6,4 km/h (2 Bft) 100,00 %
14.02.2026 20:58 -0,4 °C -1,1 °C -4,4 °C 83 % 1018,9 hPa 0,0 l/m² 0 min 0 min 0 W/m² 3,2 km/h (1 Bft) 100,00 %
14.02.2026 21:00 -0,4 °C -1,1 °C -4,4 °C 83 % 1018,9 hPa 0,0 l/m² 0 min 0 min 0 W/m² 3,2 km/h (1 Bft) 100,00 %
14.02.2026 21:02 -0,4 °C -1,1 °C -4,4 °C 83 % 1018,9 hPa 0,0 l/m² 0 min 0 min 0 W/m² 9,7 km/h (2 Bft) 100,00 %
14.02.2026 21:04 -0,4 °C -1,1 °C -4,4 °C 83 % 1018,9 hPa 0,0 l/m² 0 min 0 min 0 W/m² 3,2 km/h (1 Bft) 100,00 %
14.02.2026 21:06 -0,4 °C -1,1 °C -4,4 °C 83 % 1018,9 hPa 0,0 l/m² 0 min 0 min 0 W/m² 6,4 km/h (2 Bft) 97,87 %
14.02.2026 21:08 -0,5 °C -1,1 °C -4,4 °C 83 % 1018,9 hPa 0,0 l/m² 0 min 0 min 0 W/m² 6,4 km/h (2 Bft) 97,87 %
14.02.2026 21:10 -0,5 °C -1,7 °C -4,4 °C 83 % 1019,0 hPa 0,0 l/m² 0 min 0 min 0 W/m² 9,7 km/h (2 Bft) 97,87 %
14.02.2026 21:12 -0,6 °C -1,7 °C -4,4 °C 83 % 1018,9 hPa 0,0 l/m² 0 min 0 min 0 W/m² 3,2 km/h (1 Bft) 95,74 %
14.02.2026 21:14 -0,6 °C -1,1 °C -4,4 °C 83 % 1019,0 hPa 0,0 l/m² 0 min 0 min 0 W/m² 3,2 km/h (1 Bft) 95,74 %
14.02.2026 21:16 -0,6 °C -1,1 °C -4,4 °C 83 % 1019,0 hPa 0,0 l/m² 0 min 0 min 0 W/m² 3,2 km/h (1 Bft) 97,87 %
14.02.2026 21:18 -0,6 °C -1,7 °C -4,4 °C 83 % 1019,0 hPa 0,0 l/m² 0 min 0 min 0 W/m² 9,7 km/h (2 Bft) 98,00 %
14.02.2026 21:20 -0,6 °C -1,7 °C -4,4 °C 83 % 1019,0 hPa 0,0 l/m² 0 min 0 min 0 W/m² 6,4 km/h (2 Bft) 93,62 %
14.02.2026 21:22 -0,6 °C -1,7 °C -4,4 °C 83 % 1019,0 hPa 0,0 l/m² 0 min 0 min 0 W/m² 3,2 km/h (1 Bft) 95,65 %
14.02.2026 21:24 -0,6 °C -1,7 °C -4,4 °C 83 % 1019,1 hPa 0,0 l/m² 0 min 0 min 0 W/m² 0,0 km/h (0 Bft) 95,74 %
14.02.2026 21:26 -0,6 °C -1,7 °C -4,4 °C 83 % 1019,1 hPa 0,0 l/m² 0 min 0 min 0 W/m² 6,4 km/h (2 Bft) 95,74 %
14.02.2026 21:28 -0,6 °C -1,7 °C -4,4 °C 83 % 1019,2 hPa 0,0 l/m² 0 min 0 min 0 W/m² 3,2 km/h (1 Bft) 95,74 %
14.02.2026 21:30 -0,6 °C -1,7 °C -4,4 °C 83 % 1019,1 hPa 0,0 l/m² 0 min 0 min 0 W/m² 0,0 km/h (0 Bft) 95,74 %
14.02.2026 21:32 -0,7 °C -1,7 °C -4,4 °C 83 % 1019,1 hPa 0,0 l/m² 0 min 0 min 0 W/m² 0,0 km/h (0 Bft) 93,62 %
14.02.2026 21:34 -0,7 °C -1,7 °C -4,4 °C 83 % 1019,2 hPa 0,0 l/m² 0 min 0 min 0 W/m² 0,0 km/h (0 Bft) 95,74 %
14.02.2026 21:36 -0,7 °C -1,7 °C -4,4 °C 83 % 1019,1 hPa 0,0 l/m² 0 min 0 min 0 W/m² 0,0 km/h (0 Bft) 89,36 %
14.02.2026 21:38 -0,7 °C -1,7 °C -4,4 °C 83 % 1019,1 hPa 0,0 l/m² 0 min 0 min 0 W/m² 0,0 km/h (0 Bft) 95,74 %
14.02.2026 21:40 -0,7 °C -1,7 °C -5,0 °C 83 % 1019,1 hPa 0,0 l/m² 0 min 0 min 0 W/m² 3,2 km/h (1 Bft) 95,74 %
14.02.2026 21:42 -0,7 °C -1,7 °C -5,0 °C 83 % 1019,1 hPa 0,0 l/m² 0 min 0 min 0 W/m² 3,2 km/h (1 Bft) 94,74 %
14.02.2026 21:44 -0,7 °C -1,7 °C -5,0 °C 83 % 1019,3 hPa 0,0 l/m² 0 min 0 min 0 W/m² 6,4 km/h (2 Bft) 95,65 %
14.02.2026 21:46 -0,7 °C -1,7 °C -5,0 °C 83 % 1019,2 hPa 0,0 l/m² 0 min 0 min 0 W/m² 3,2 km/h (1 Bft) 93,62 %
14.02.2026 21:48 -0,7 °C -1,7 °C -5,0 °C 84 % 1019,3 hPa 0,0 l/m² 0 min 0 min 0 W/m² 0,0 km/h (0 Bft) 95,74 %
14.02.2026 21:50 -0,8 °C -1,7 °C -5,0 °C 84 % 1019,3 hPa 0,0 l/m² 0 min 0 min 0 W/m² 6,4 km/h (2 Bft) 97,87 %
14.02.2026 21:52 -0,8 °C -1,7 °C -5,0 °C 84 % 1019,3 hPa 0,0 l/m² 0 min 0 min 0 W/m² 6,4 km/h (2 Bft) 93,62 %
14.02.2026 21:54 -0,8 °C -1,7 °C -5,0 °C 84 % 1019,3 hPa 0,0 l/m² 0 min 0 min 0 W/m² 3,2 km/h (1 Bft) 98,00 %
14.02.2026 21:56 -0,8 °C -1,7 °C -5,0 °C 84 % 1019,3 hPa 0,0 l/m² 0 min 0 min 0 W/m² 0,0 km/h (0 Bft) 93,62 %
14.02.2026 21:58 -0,8 °C -1,7 °C -5,0 °C 84 % 1019,3 hPa 0,0 l/m² 0 min 0 min 0 W/m² 3,2 km/h (1 Bft) 93,62 %
14.02.2026 22:00 -0,9 °C -1,7 °C -5,0 °C 84 % 1019,3 hPa 0,0 l/m² 0 min 0 min 0 W/m² 6,4 km/h (2 Bft) 95,74 %
14.02.2026 22:02 -0,9 °C -1,7 °C -5,0 °C 83 % 1019,3 hPa 0,0 l/m² 0 min 0 min 0 W/m² 0,0 km/h (0 Bft) 95,74 %
14.02.2026 22:04 -0,9 °C -1,7 °C -5,0 °C 84 % 1019,4 hPa 0,0 l/m² 0 min 0 min 0 W/m² 3,2 km/h (1 Bft) 95,83 %
14.02.2026 22:06 -0,9 °C -2,2 °C -5,0 °C 84 % 1019,4 hPa 0,0 l/m² 0 min 0 min 0 W/m² 9,7 km/h (2 Bft) 95,74 %
14.02.2026 22:08 -0,9 °C -2,2 °C -5,0 °C 84 % 1019,4 hPa 0,0 l/m² 0 min 0 min 0 W/m² 3,2 km/h (1 Bft) 97,83 %
14.02.2026 22:10 -0,9 °C -2,2 °C -5,0 °C 84 % 1019,4 hPa 0,0 l/m² 0 min 0 min 0 W/m² 3,2 km/h (1 Bft) 97,87 %
14.02.2026 22:12 -0,9 °C -2,2 °C -5,0 °C 84 % 1019,4 hPa 0,0 l/m² 0 min 0 min 0 W/m² 0,0 km/h (0 Bft) 97,87 %
14.02.2026 22:14 -0,9 °C -2,2 °C -5,0 °C 84 % 1019,4 hPa 0,0 l/m² 0 min 0 min 0 W/m² 0,0 km/h (0 Bft) 97,87 %
14.02.2026 22:16 -1,0 °C -2,2 °C -5,6 °C 84 % 1019,5 hPa 0,0 l/m² 0 min 0 min 0 W/m² 3,2 km/h (1 Bft) 97,87 %
14.02.2026 22:18 -1,0 °C -2,8 °C -5,6 °C 84 % 1019,5 hPa 0,0 l/m² 0 min 0 min 0 W/m² 0,0 km/h (0 Bft) 95,74 %
14.02.2026 22:20 -1,1 °C -2,8 °C -5,6 °C 84 % 1019,5 hPa 0,0 l/m² 0 min 0 min 0 W/m² 0,0 km/h (0 Bft) 95,74 %
14.02.2026 22:22 -1,1 °C -2,8 °C -5,6 °C 84 % 1019,6 hPa 0,0 l/m² 0 min 0 min 0 W/m² 3,2 km/h (1 Bft) 97,87 %
14.02.2026 22:24 -1,1 °C -2,8 °C -5,6 °C 84 % 1019,6 hPa 0,0 l/m² 0 min 0 min 0 W/m² 0,0 km/h (0 Bft) 95,74 %
14.02.2026 22:26 -1,1 °C -2,8 °C -5,6 °C 84 % 1019,6 hPa 0,0 l/m² 0 min 0 min 0 W/m² 0,0 km/h (0 Bft) 97,87 %
14.02.2026 22:28 -1,2 °C -2,8 °C -6,1 °C 84 % 1019,6 hPa 0,0 l/m² 0 min 0 min 0 W/m² 0,0 km/h (0 Bft) 97,87 %
14.02.2026 22:30 -1,2 °C -2,8 °C -6,1 °C 84 % 1019,7 hPa 0,0 l/m² 0 min 0 min 0 W/m² 3,2 km/h (1 Bft) 100,00 %
14.02.2026 22:32 -1,2 °C -2,8 °C -6,1 °C 84 % 1019,7 hPa 0,0 l/m² 0 min 0 min 0 W/m² 0,0 km/h (0 Bft) 100,00 %
14.02.2026 22:34 -1,3 °C -2,8 °C -6,1 °C 84 % 1019,7 hPa 0,0 l/m² 0 min 0 min 0 W/m² 3,2 km/h (1 Bft) 100,00 %
14.02.2026 22:36 -1,3 °C -3,3 °C -6,1 °C 84 % 1019,7 hPa 0,0 l/m² 0 min 0 min 0 W/m² 0,0 km/h (0 Bft) 100,00 %
14.02.2026 22:38 -1,4 °C -3,3 °C -6,1 °C 84 % 1019,7 hPa 0,0 l/m² 0 min 0 min 0 W/m² 0,0 km/h (0 Bft) 100,00 %
14.02.2026 22:40 -1,4 °C -3,3 °C -6,1 °C 84 % 1019,7 hPa 0,0 l/m² 0 min 0 min 0 W/m² 0,0 km/h (0 Bft) 100,00 %
14.02.2026 22:42 -1,4 °C -3,3 °C -6,1 °C 84 % 1019,8 hPa 0,0 l/m² 0 min 0 min 0 W/m² 0,0 km/h (0 Bft) 97,87 %
14.02.2026 22:44 -1,5 °C -3,3 °C -6,1 °C 84 % 1019,8 hPa 0,0 l/m² 0 min 0 min 0 W/m² 3,2 km/h (1 Bft) 100,00 %
14.02.2026 22:46 -1,5 °C -3,3 °C -6,1 °C 84 % 1019,8 hPa 0,0 l/m² 0 min 0 min 0 W/m² 0,0 km/h (0 Bft) 95,74 %
14.02.2026 22:48 -1,6 °C -3,3 °C -6,1 °C 84 % 1019,8 hPa 0,0 l/m² 0 min 0 min 0 W/m² 0,0 km/h (0 Bft) 100,00 %
14.02.2026 22:50 -1,6 °C -3,3 °C -6,1 °C 84 % 1019,8 hPa 0,0 l/m² 0 min 0 min 0 W/m² 0,0 km/h (0 Bft) 100,00 %
14.02.2026 22:52 -1,6 °C -3,3 °C -6,1 °C 84 % 1019,8 hPa 0,0 l/m² 0 min 0 min 0 W/m² 0,0 km/h (0 Bft) 100,00 %
14.02.2026 22:54 -1,7 °C -3,3 °C -6,1 °C 84 % 1019,8 hPa 0,0 l/m² 0 min 0 min 0 W/m² 0,0 km/h (0 Bft) 100,00 %
14.02.2026 22:56 -1,7 °C -3,3 °C -6,1 °C 84 % 1019,9 hPa 0,0 l/m² 0 min 0 min 0 W/m² 0,0 km/h (0 Bft) 100,00 %
14.02.2026 22:58 -1,8 °C -3,3 °C -6,1 °C 84 % 1019,8 hPa 0,0 l/m² 0 min 0 min 0 W/m² 0,0 km/h (0 Bft) 97,87 %
14.02.2026 23:00 -1,8 °C -3,3 °C -6,7 °C 84 % 1019,8 hPa 0,0 l/m² 0 min 0 min 0 W/m² 0,0 km/h (0 Bft) 97,87 %
14.02.2026 23:02 -1,8 °C -3,3 °C -6,7 °C 84 % 1019,8 hPa 0,0 l/m² 0 min 0 min 0 W/m² 0,0 km/h (0 Bft) 97,83 %
14.02.2026 23:04 -1,9 °C -3,3 °C -6,7 °C 84 % 1019,8 hPa 0,0 l/m² 0 min 0 min 0 W/m² 0,0 km/h (0 Bft) 95,74 %
14.02.2026 23:06 -1,9 °C -3,9 °C -6,7 °C 84 % 1019,9 hPa 0,0 l/m² 0 min 0 min 0 W/m² 0,0 km/h (0 Bft) 96,61 %
14.02.2026 23:08 -1,9 °C -3,9 °C -6,7 °C 84 % 1019,9 hPa 0,0 l/m² 0 min 0 min 0 W/m² 0,0 km/h (0 Bft) 97,22 %
14.02.2026 23:10 -2,0 °C -3,9 °C -6,7 °C 84 % 1019,9 hPa 0,0 l/m² 0 min 0 min 0 W/m² 0,0 km/h (0 Bft) 95,74 %
14.02.2026 23:12 -2,0 °C -3,9 °C -6,7 °C 84 % 1019,9 hPa 0,0 l/m² 0 min 0 min 0 W/m² 0,0 km/h (0 Bft) 97,87 %
14.02.2026 23:14 -2,1 °C -3,9 °C -6,7 °C 84 % 1019,9 hPa 0,0 l/m² 0 min 0 min 0 W/m² 0,0 km/h (0 Bft) 97,87 %
14.02.2026 23:16 -2,1 °C -3,9 °C -6,7 °C 84 % 1020,0 hPa 0,0 l/m² 0 min 0 min 0 W/m² 3,2 km/h (1 Bft) 97,87 %
14.02.2026 23:18 -2,1 °C -3,9 °C -6,7 °C 84 % 1020,0 hPa 0,0 l/m² 0 min 0 min 0 W/m² 0,0 km/h (0 Bft) 93,62 %
14.02.2026 23:20 -2,2 °C -3,9 °C -6,7 °C 84 % 1020,0 hPa 0,0 l/m² 0 min 0 min 0 W/m² 0,0 km/h (0 Bft) 95,74 %
14.02.2026 23:22 -2,2 °C -3,9 °C -6,7 °C 84 % 1020,0 hPa 0,0 l/m² 0 min 0 min 0 W/m² 0,0 km/h (0 Bft) 97,87 %
14.02.2026 23:24 -2,2 °C -3,9 °C -6,7 °C 85 % 1020,0 hPa 0,0 l/m² 0 min 0 min 0 W/m² 3,2 km/h (1 Bft) 100,00 %
14.02.2026 23:26 -2,3 °C -3,9 °C -6,7 °C 85 % 1020,1 hPa 0,0 l/m² 0 min 0 min 0 W/m² 0,0 km/h (0 Bft) 100,00 %
14.02.2026 23:28 -2,3 °C -3,9 °C -6,7 °C 85 % 1020,1 hPa 0,0 l/m² 0 min 0 min 0 W/m² 0,0 km/h (0 Bft) 100,00 %
14.02.2026 23:30 -2,3 °C -3,9 °C -6,7 °C 85 % 1020,1 hPa 0,0 l/m² 0 min 0 min 0 W/m² 0,0 km/h (0 Bft) 97,87 %
14.02.2026 23:32 -2,3 °C -3,9 °C -6,7 °C 85 % 1020,1 hPa 0,0 l/m² 0 min 0 min 0 W/m² 0,0 km/h (0 Bft) 100,00 %
14.02.2026 23:34 -2,3 °C -3,9 °C -6,7 °C 85 % 1020,2 hPa 0,0 l/m² 0 min 0 min 0 W/m² 0,0 km/h (0 Bft) 100,00 %
14.02.2026 23:36 -2,4 °C -3,9 °C -6,7 °C 85 % 1020,1 hPa 0,0 l/m² 0 min 0 min 0 W/m² 0,0 km/h (0 Bft) 95,74 %
14.02.2026 23:38 -2,4 °C -3,9 °C -6,7 °C 85 % 1020,2 hPa 0,0 l/m² 0 min 0 min 0 W/m² 0,0 km/h (0 Bft) 100,00 %
14.02.2026 23:40 -2,4 °C -3,9 °C -6,7 °C 85 % 1020,2 hPa 0,0 l/m² 0 min 0 min 0 W/m² 0,0 km/h (0 Bft) 97,87 %
14.02.2026 23:42 -2,5 °C -3,9 °C -6,7 °C 85 % 1020,2 hPa 0,0 l/m² 0 min 0 min 0 W/m² 0,0 km/h (0 Bft) 97,87 %
14.02.2026 23:44 -2,5 °C -3,9 °C -6,7 °C 85 % 1020,2 hPa 0,0 l/m² 0 min 0 min 0 W/m² 3,2 km/h (1 Bft) 97,87 %
14.02.2026 23:46 -2,5 °C -3,9 °C -6,7 °C 85 % 1020,3 hPa 0,0 l/m² 0 min 0 min 0 W/m² 0,0 km/h (0 Bft) 97,83 %
14.02.2026 23:48 -2,5 °C -3,9 °C -6,7 °C 85 % 1020,2 hPa 0,0 l/m² 0 min 0 min 0 W/m² 0,0 km/h (0 Bft) 95,74 %
14.02.2026 23:50 -2,6 °C -3,9 °C -6,7 °C 85 % 1020,3 hPa 0,0 l/m² 0 min 0 min 0 W/m² 0,0 km/h (0 Bft) 95,74 %
14.02.2026 23:52 -2,6 °C -3,9 °C -7,2 °C 85 % 1020,2 hPa 0,0 l/m² 0 min 0 min 0 W/m² 0,0 km/h (0 Bft) 97,87 %
14.02.2026 23:54 -2,6 °C -3,9 °C -7,2 °C 85 % 1020,2 hPa 0,0 l/m² 0 min 0 min 0 W/m² 0,0 km/h (0 Bft) 97,87 %
14.02.2026 23:56 -2,7 °C -4,4 °C -7,2 °C 85 % 1020,2 hPa 0,0 l/m² 0 min 0 min 0 W/m² 0,0 km/h (0 Bft) 95,74 %
14.02.2026 23:58 -2,7 °C -4,4 °C -7,2 °C 85 % 1020,2 hPa 0,0 l/m² 0 min 0 min 0 W/m² 0,0 km/h (0 Bft) 97,87 %
_ Min-Zeit 23:56 23:56 23:52 20:28 00:00 - - - - 20:52 18:02
Minimum _ -2,7 °C -4,4 °C -7,2 °C 83 % 999,3 hPa - - - - 0,0 km/h (0 Bft) 35,48 %
_ Max-Zeit 00:00 00:00 00:00 00:00 23:46 00:00 00:00 00:00 12:56 02:20 00:32
Maximum _ 1,9 °C 1,7 °C -1,7 °C 91 % 1020,3 hPa 0,0 l/m² 0 min 0 min 73 W/m² 35,4 km/h
O-SO (5 Bft)
100,00 %
Durchschnitt _ 0,6 °C 0,1 °C -3,2 °C 88 % 1010,6 hPa #0,0 l/m² #0 min. #0 min. 34 W/m² 12,0 km/h (2 Bft) 96,98 %
© 2026 W. Hausmann